Wetterdaten: Freitag, 14.06.2013
Datum Zeit Temp. Aussen +5cm Feuchte Auss Luftdruck Regen Sonnenschein Regendauer UV Solar Windben
14.06.2013 00:00 11,7 C 10,7 C 96 % 1016,3 hPa 0,0 l/m 0 min 0 min 0,0 UV-I 0 W/m 2,6 km/h (1 Bft)
14.06.2013 00:02 11,7 C 10,7 C 96 % 1016,3 hPa 0,0 l/m 0 min 0 min 0,0 UV-I 0 W/m 12,9 km/h (3 Bft)
14.06.2013 00:06 11,7 C 10,7 C 96 % 1016,3 hPa 0,0 l/m 0 min 0 min 0,0 UV-I 0 W/m 12,9 km/h (3 Bft)
14.06.2013 00:08 11,7 C 10,7 C 96 % 1016,4 hPa 0,0 l/m 0 min 0 min 0,0 UV-I 0 W/m 5,1 km/h (1 Bft)
14.06.2013 00:10 11,7 C 10,7 C 96 % 1016,4 hPa 0,0 l/m 0 min 0 min 0,0 UV-I 0 W/m 15,4 km/h (3 Bft)
14.06.2013 00:12 11,7 C 10,7 C 96 % 1016,5 hPa 0,0 l/m 0 min 0 min 0,0 UV-I 0 W/m 2,6 km/h (1 Bft)
14.06.2013 00:14 11,7 C 10,7 C 96 % 1016,5 hPa 0,0 l/m 0 min 0 min 0,0 UV-I 0 W/m 12,9 km/h (3 Bft)
14.06.2013 00:16 11,7 C 10,7 C 96 % 1016,5 hPa 0,0 l/m 0 min 2 min 0,0 UV-I 0 W/m 15,4 km/h (3 Bft)
14.06.2013 00:18 11,8 C 10,7 C 96 % 1016,6 hPa 0,0 l/m 0 min 0 min 0,0 UV-I 0 W/m 20,6 km/h (4 Bft)
14.06.2013 00:20 11,8 C 10,7 C 96 % 1016,5 hPa 0,0 l/m 0 min 0 min 0,0 UV-I 0 W/m 15,4 km/h (3 Bft)
14.06.2013 00:22 11,8 C 10,7 C 96 % 1016,5 hPa 0,0 l/m 0 min 0 min 0,0 UV-I 0 W/m 7,7 km/h (2 Bft)
14.06.2013 00:24 11,8 C 10,7 C 96 % 1016,6 hPa 0,0 l/m 0 min 0 min 0,0 UV-I 0 W/m 12,9 km/h (3 Bft)
14.06.2013 00:26 11,8 C 10,7 C 96 % 1016,6 hPa 0,0 l/m 0 min 0 min 0,0 UV-I 0 W/m 10,3 km/h (2 Bft)
14.06.2013 00:28 11,8 C 10,7 C 96 % 1016,6 hPa 0,0 l/m 0 min 0 min 0,0 UV-I 0 W/m 12,9 km/h (3 Bft)
14.06.2013 00:30 11,7 C 10,7 C 96 % 1016,7 hPa 0,0 l/m 0 min 0 min 0,0 UV-I 0 W/m 7,7 km/h (2 Bft)
14.06.2013 00:32 11,7 C 10,7 C 96 % 1016,8 hPa 0,0 l/m 0 min 0 min 0,0 UV-I 0 W/m 10,3 km/h (2 Bft)
14.06.2013 00:34 11,8 C 10,7 C 96 % 1016,7 hPa 0,0 l/m 0 min 0 min 0,0 UV-I 0 W/m 10,3 km/h (2 Bft)
14.06.2013 00:36 11,8 C 10,7 C 96 % 1016,8 hPa 0,0 l/m 0 min 0 min 0,0 UV-I 0 W/m 7,7 km/h (2 Bft)
14.06.2013 00:38 11,8 C 10,7 C 96 % 1016,8 hPa 0,0 l/m 0 min 0 min 0,0 UV-I 0 W/m 10,3 km/h (2 Bft)
14.06.2013 00:40 11,7 C 10,7 C 96 % 1016,8 hPa 0,0 l/m 0 min 0 min 0,0 UV-I 0 W/m 5,1 km/h (1 Bft)
14.06.2013 00:42 11,7 C 10,7 C 96 % 1016,8 hPa 0,0 l/m 0 min 0 min 0,0 UV-I 0 W/m 7,7 km/h (2 Bft)
14.06.2013 00:44 11,8 C 10,7 C 96 % 1016,9 hPa 0,0 l/m 0 min 0 min 0,0 UV-I 0 W/m 5,1 km/h (1 Bft)
14.06.2013 00:46 11,7 C 10,7 C 95 % 1016,8 hPa 0,0 l/m 0 min 0 min 0,0 UV-I 0 W/m 7,7 km/h (2 Bft)
14.06.2013 00:48 11,7 C 10,7 C 95 % 1016,8 hPa 0,0 l/m 0 min 0 min 0,0 UV-I 0 W/m 10,3 km/h (2 Bft)
14.06.2013 00:50 11,7 C 10,7 C 95 % 1016,9 hPa 0,0 l/m 0 min 0 min 0,0 UV-I 0 W/m 12,9 km/h (3 Bft)
14.06.2013 00:52 11,7 C 10,7 C 95 % 1017,0 hPa 0,0 l/m 0 min 0 min 0,0 UV-I 0 W/m 12,9 km/h (3 Bft)
14.06.2013 00:54 11,7 C 10,7 C 95 % 1016,9 hPa 0,0 l/m 0 min 0 min 0,0 UV-I 0 W/m 15,4 km/h (3 Bft)
14.06.2013 00:56 11,7 C 10,7 C 95 % 1016,9 hPa 0,0 l/m 0 min 0 min 0,0 UV-I 0 W/m 5,1 km/h (1 Bft)
14.06.2013 00:58 11,7 C 10,7 C 95 % 1016,9 hPa 0,0 l/m 0 min 0 min 0,0 UV-I 0 W/m 5,1 km/h (1 Bft)
14.06.2013 01:00 11,7 C 10,7 C 95 % 1017,0 hPa 0,0 l/m 0 min 0 min 0,0 UV-I 0 W/m 12,9 km/h (3 Bft)
14.06.2013 01:02 11,7 C 10,7 C 95 % 1016,9 hPa 0,0 l/m 0 min 0 min 0,0 UV-I 0 W/m 20,6 km/h (4 Bft)
14.06.2013 01:04 11,7 C 10,7 C 95 % 1017,0 hPa 0,0 l/m 0 min 0 min 0,0 UV-I 0 W/m 10,3 km/h (2 Bft)
14.06.2013 01:06 11,7 C 10,7 C 95 % 1017,0 hPa 0,0 l/m 0 min 0 min 0,0 UV-I 0 W/m 10,3 km/h (2 Bft)
14.06.2013 01:08 11,7 C 10,7 C 95 % 1017,0 hPa 0,0 l/m 0 min 0 min 0,0 UV-I 0 W/m 10,3 km/h (2 Bft)
14.06.2013 01:10 11,7 C 10,7 C 95 % 1017,0 hPa 0,0 l/m 0 min 0 min 0,0 UV-I 0 W/m 12,9 km/h (3 Bft)
14.06.2013 01:12 11,7 C 10,7 C 95 % 1017,0 hPa 0,0 l/m 0 min 0 min 0,0 UV-I 0 W/m 10,3 km/h (2 Bft)
14.06.2013 01:14 11,7 C 10,7 C 95 % 1017,0 hPa 0,0 l/m 0 min 0 min 0,0 UV-I 0 W/m 12,9 km/h (3 Bft)
14.06.2013 01:16 11,7 C 10,7 C 94 % 1017,0 hPa 0,0 l/m 0 min 0 min 0,0 UV-I 0 W/m 7,7 km/h (2 Bft)
14.06.2013 01:18 11,7 C 10,7 C 94 % 1017,0 hPa 0,0 l/m 0 min 0 min 0,0 UV-I 0 W/m 10,3 km/h (2 Bft)
14.06.2013 01:20 11,7 C 10,7 C 94 % 1017,0 hPa 0,0 l/m 0 min 0 min 0,0 UV-I 0 W/m 7,7 km/h (2 Bft)
14.06.2013 01:22 11,7 C 10,7 C 94 % 1017,1 hPa 0,0 l/m 0 min 0 min 0,0 UV-I 0 W/m 10,3 km/h (2 Bft)
14.06.2013 01:24 11,7 C 10,7 C 94 % 1017,1 hPa 0,0 l/m 0 min 0 min 0,0 UV-I 0 W/m 12,9 km/h (3 Bft)
14.06.2013 01:26 11,7 C 10,7 C 94 % 1017,1 hPa 0,0 l/m 0 min 0 min 0,0 UV-I 0 W/m 0,0 km/h (0 Bft)
14.06.2013 01:28 11,7 C 10,7 C 94 % 1017,1 hPa 0,0 l/m 0 min 0 min 0,0 UV-I 0 W/m 0,0 km/h (0 Bft)
14.06.2013 01:30 11,7 C 10,7 C 94 % 1017,2 hPa 0,0 l/m 0 min 0 min 0,0 UV-I 0 W/m 12,9 km/h (3 Bft)
14.06.2013 01:32 11,7 C 10,7 C 94 % 1017,1 hPa 0,0 l/m 0 min 0 min 0,0 UV-I 0 W/m 10,3 km/h (2 Bft)
14.06.2013 01:34 11,7 C 10,7 C 94 % 1017,2 hPa 0,0 l/m 0 min 0 min 0,0 UV-I 0 W/m 15,4 km/h (3 Bft)
14.06.2013 01:36 11,7 C 10,7 C 94 % 1017,3 hPa 0,0 l/m 0 min 0 min 0,0 UV-I 0 W/m 18,0 km/h (3 Bft)
14.06.2013 01:38 11,7 C 10,7 C 93 % 1017,1 hPa 0,0 l/m 0 min 0 min 0,0 UV-I 0 W/m 10,3 km/h (2 Bft)
14.06.2013 01:40 11,7 C 10,7 C 93 % 1017,3 hPa 0,0 l/m 0 min 0 min 0,0 UV-I 0 W/m 7,7 km/h (2 Bft)
14.06.2013 01:42 11,7 C 10,7 C 93 % 1017,3 hPa 0,0 l/m 0 min 0 min 0,0 UV-I 0 W/m 12,9 km/h (3 Bft)
14.06.2013 01:44 11,7 C 10,1 C 93 % 1017,3 hPa 0,0 l/m 0 min 0 min 0,0 UV-I 0 W/m 2,6 km/h (1 Bft)
14.06.2013 01:46 11,7 C 10,1 C 93 % 1017,3 hPa 0,0 l/m 0 min 0 min 0,0 UV-I 0 W/m 15,4 km/h (3 Bft)
14.06.2013 01:48 11,6 C 10,1 C 93 % 1017,4 hPa 0,0 l/m 0 min 0 min 0,0 UV-I 0 W/m 10,3 km/h (2 Bft)
14.06.2013 01:50 11,6 C 10,1 C 93 % 1017,4 hPa 0,0 l/m 0 min 0 min 0,0 UV-I 0 W/m 5,1 km/h (1 Bft)
14.06.2013 01:52 11,6 C 10,1 C 93 % 1017,4 hPa 0,0 l/m 0 min 0 min 0,0 UV-I 0 W/m 2,6 km/h (1 Bft)
14.06.2013 01:54 11,6 C 10,1 C 93 % 1017,4 hPa 0,0 l/m 0 min 0 min 0,0 UV-I 0 W/m 15,4 km/h (3 Bft)
14.06.2013 01:56 11,6 C 10,1 C 93 % 1017,5 hPa 0,0 l/m 0 min 0 min 0,0 UV-I 0 W/m 5,1 km/h (1 Bft)
14.06.2013 01:58 11,6 C 10,1 C 92 % 1017,5 hPa 0,0 l/m 0 min 0 min 0,0 UV-I 0 W/m 15,4 km/h (3 Bft)
14.06.2013 02:00 11,6 C 10,1 C 92 % 1017,5 hPa 0,0 l/m 0 min 0 min 0,0 UV-I 0 W/m 15,4 km/h (3 Bft)
14.06.2013 02:02 11,6 C 10,1 C 92 % 1017,5 hPa 0,0 l/m 0 min 0 min 0,0 UV-I 0 W/m 5,1 km/h (1 Bft)
14.06.2013 02:04 11,5 C 10,1 C 92 % 1017,5 hPa 0,0 l/m 0 min 0 min 0,0 UV-I 0 W/m 7,7 km/h (2 Bft)
14.06.2013 02:06 11,6 C 10,7 C 92 % 1017,6 hPa 0,0 l/m 0 min 0 min 0,0 UV-I 0 W/m 7,7 km/h (2 Bft)
14.06.2013 02:08 11,5 C 10,7 C 92 % 1017,7 hPa 0,0 l/m 0 min 0 min 0,0 UV-I 0 W/m 18,0 km/h (3 Bft)
14.06.2013 02:10 11,5 C 10,7 C 92 % 1017,5 hPa 0,0 l/m 0 min 0 min 0,0 UV-I 0 W/m 10,3 km/h (2 Bft)
14.06.2013 02:12 11,5 C 10,7 C 92 % 1017,6 hPa 0,0 l/m 0 min 0 min 0,0 UV-I 0 W/m 12,9 km/h (3 Bft)
14.06.2013 02:14 11,5 C 10,1 C 92 % 1017,6 hPa 0,0 l/m 0 min 0 min 0,0 UV-I 0 W/m 5,1 km/h (1 Bft)
14.06.2013 02:16 11,6 C 10,1 C 92 % 1017,8 hPa 0,0 l/m 0 min 0 min 0,0 UV-I 0 W/m 0,0 km/h (0 Bft)
14.06.2013 02:18 11,5 C 10,1 C 92 % 1017,7 hPa 0,0 l/m 0 min 0 min 0,0 UV-I 0 W/m 12,9 km/h (3 Bft)
14.06.2013 02:20 11,5 C 10,1 C 92 % 1017,7 hPa 0,0 l/m 0 min 0 min 0,0 UV-I 0 W/m 10,3 km/h (2 Bft)
14.06.2013 02:22 11,5 C 10,1 C 92 % 1017,8 hPa 0,0 l/m 0 min 0 min 0,0 UV-I 0 W/m 12,9 km/h (3 Bft)
14.06.2013 02:24 11,4 C 10,1 C 92 % 1017,9 hPa 0,0 l/m 0 min 0 min 0,0 UV-I 0 W/m 7,7 km/h (2 Bft)
14.06.2013 02:26 11,4 C 10,1 C 92 % 1017,9 hPa 0,0 l/m 0 min 0 min 0,0 UV-I 0 W/m 7,7 km/h (2 Bft)
14.06.2013 02:28 11,4 C 10,1 C 92 % 1017,9 hPa 0,0 l/m 0 min 0 min 0,0 UV-I 0 W/m 7,7 km/h (2 Bft)
14.06.2013 02:30 11,4 C 10,1 C 92 % 1018,0 hPa 0,0 l/m 0 min 0 min 0,0 UV-I 0 W/m 10,3 km/h (2 Bft)
14.06.2013 02:32 11,4 C 10,1 C 92 % 1018,0 hPa 0,0 l/m 0 min 0 min 0,0 UV-I 0 W/m 12,9 km/h (3 Bft)
14.06.2013 02:34 11,4 C 10,1 C 92 % 1017,9 hPa 0,0 l/m 0 min 0 min 0,0 UV-I 0 W/m 10,3 km/h (2 Bft)
14.06.2013 02:36 11,4 C 10,1 C 92 % 1017,9 hPa 0,0 l/m 0 min 0 min 0,0 UV-I 0 W/m 10,3 km/h (2 Bft)
14.06.2013 02:38 11,4 C 10,1 C 91 % 1018,0 hPa 0,0 l/m 0 min 0 min 0,0 UV-I 0 W/m 10,3 km/h (2 Bft)
14.06.2013 02:40 11,4 C 10,1 C 91 % 1018,0 hPa 0,0 l/m 0 min 0 min 0,0 UV-I 0 W/m 12,9 km/h (3 Bft)
14.06.2013 02:42 11,4 C 10,1 C 91 % 1018,0 hPa 0,0 l/m 0 min 0 min 0,0 UV-I 0 W/m 10,3 km/h (2 Bft)
14.06.2013 02:44 11,4 C 10,1 C 91 % 1018,0 hPa 0,0 l/m 0 min 0 min 0,0 UV-I 0 W/m 5,1 km/h (1 Bft)
14.06.2013 02:46 11,3 C 10,1 C 91 % 1018,0 hPa 0,0 l/m 0 min 0 min 0,0 UV-I 0 W/m 7,7 km/h (2 Bft)
14.06.2013 02:48 11,3 C 10,1 C 91 % 1018,0 hPa 0,0 l/m 0 min 0 min 0,0 UV-I 0 W/m 7,7 km/h (2 Bft)
14.06.2013 02:50 11,3 C 10,1 C 91 % 1018,0 hPa 0,0 l/m 0 min 0 min 0,0 UV-I 0 W/m 10,3 km/h (2 Bft)
14.06.2013 02:52 11,3 C 10,1 C 91 % 1018,0 hPa 0,0 l/m 0 min 0 min 0,0 UV-I 0 W/m 5,1 km/h (1 Bft)
14.06.2013 02:54 11,3 C 10,1 C 91 % 1018,0 hPa 0,0 l/m 0 min 0 min 0,0 UV-I 0 W/m 0,0 km/h (0 Bft)
14.06.2013 02:56 11,3 C 10,1 C 91 % 1018,0 hPa 0,0 l/m 0 min 0 min 0,0 UV-I 0 W/m 10,3 km/h (2 Bft)
14.06.2013 02:58 11,2 C 10,1 C 91 % 1018,1 hPa 0,0 l/m 0 min 0 min 0,0 UV-I 0 W/m 7,7 km/h (2 Bft)
14.06.2013 03:00 11,2 C 10,1 C 91 % 1018,1 hPa 0,0 l/m 0 min 0 min 0,0 UV-I 0 W/m 10,3 km/h (2 Bft)
14.06.2013 03:02 11,2 C 10,1 C 91 % 1018,2 hPa 0,0 l/m 0 min 0 min 0,0 UV-I 0 W/m 0,0 km/h (0 Bft)
14.06.2013 03:06 11,2 C 10,1 C 91 % 1018,2 hPa 0,0 l/m 0 min 0 min 0,0 UV-I 0 W/m 12,9 km/h (3 Bft)
14.06.2013 03:08 11,2 C 10,1 C 91 % 1018,2 hPa 0,0 l/m 0 min 0 min 0,0 UV-I 0 W/m 5,1 km/h (1 Bft)
14.06.2013 03:10 11,1 C 10,1 C 91 % 1018,2 hPa 0,0 l/m 0 min 0 min 0,0 UV-I 0 W/m 0,0 km/h (0 Bft)
14.06.2013 03:12 11,1 C 10,1 C 91 % 1018,3 hPa 0,0 l/m 0 min 0 min 0,0 UV-I 0 W/m 10,3 km/h (2 Bft)
14.06.2013 03:14 11,1 C 9,6 C 91 % 1018,2 hPa 0,0 l/m 0 min 0 min 0,0 UV-I 0 W/m 0,0 km/h (0 Bft)
14.06.2013 03:16 11,1 C 9,6 C 91 % 1018,2 hPa 0,0 l/m 0 min 0 min 0,0 UV-I 0 W/m 10,3 km/h (2 Bft)
14.06.2013 03:18 11,1 C 9,6 C 91 % 1018,2 hPa 0,0 l/m 0 min 0 min 0,0 UV-I 0 W/m 0,0 km/h (0 Bft)
14.06.2013 03:20 11,1 C 9,6 C 91 % 1018,2 hPa 0,0 l/m 0 min 0 min 0,0 UV-I 0 W/m 0,0 km/h (0 Bft)
14.06.2013 03:22 11,0 C 9,6 C 91 % 1018,2 hPa 0,0 l/m 0 min 0 min 0,0 UV-I 0 W/m 10,3 km/h (2 Bft)
14.06.2013 03:24 11,0 C 9,6 C 91 % 1018,2 hPa 0,0 l/m 0 min 0 min 0,0 UV-I 0 W/m 5,1 km/h (1 Bft)
14.06.2013 03:26 11,0 C 9,6 C 91 % 1018,3 hPa 0,0 l/m 0 min 0 min 0,0 UV-I 0 W/m 7,7 km/h (2 Bft)
14.06.2013 03:28 10,9 C 9,6 C 91 % 1018,4 hPa 0,0 l/m 0 min 0 min 0,0 UV-I 0 W/m 12,9 km/h (3 Bft)
14.06.2013 03:30 10,9 C 9,6 C 91 % 1018,4 hPa 0,0 l/m 0 min 0 min 0,0 UV-I 0 W/m 12,9 km/h (3 Bft)
14.06.2013 03:32 10,9 C 9,6 C 91 % 1018,4 hPa 0,0 l/m 0 min 0 min 0,0 UV-I 0 W/m 5,1 km/h (1 Bft)
14.06.2013 03:34 10,9 C 9,6 C 91 % 1018,4 hPa 0,0 l/m 0 min 0 min 0,0 UV-I 0 W/m 7,7 km/h (2 Bft)
14.06.2013 03:36 10,9 C 9,6 C 91 % 1018,5 hPa 0,0 l/m 0 min 0 min 0,0 UV-I 0 W/m 10,3 km/h (2 Bft)
14.06.2013 03:38 10,9 C 9,6 C 91 % 1018,5 hPa 0,0 l/m 0 min 0 min 0,0 UV-I 0 W/m 0,0 km/h (0 Bft)
14.06.2013 03:40 10,8 C 9,6 C 91 % 1018,6 hPa 0,0 l/m 0 min 0 min 0,0 UV-I 0 W/m 10,3 km/h (2 Bft)
14.06.2013 03:42 10,8 C 9,6 C 91 % 1018,6 hPa 0,0 l/m 0 min 0 min 0,0 UV-I 0 W/m 7,7 km/h (2 Bft)
14.06.2013 03:44 10,8 C 9,6 C 91 % 1018,6 hPa 0,0 l/m 0 min 0 min 0,0 UV-I 0 W/m 5,1 km/h (1 Bft)
14.06.2013 03:46 10,8 C 9,6 C 91 % 1018,6 hPa 0,0 l/m 0 min 0 min 0,0 UV-I 0 W/m 7,7 km/h (2 Bft)
14.06.2013 03:48 10,8 C 9,6 C 91 % 1018,6 hPa 0,0 l/m 0 min 0 min 0,0 UV-I 0 W/m 7,7 km/h (2 Bft)
14.06.2013 03:50 10,8 C 9,6 C 92 % 1018,7 hPa 0,0 l/m 0 min 0 min 0,0 UV-I 0 W/m 12,9 km/h (3 Bft)
14.06.2013 03:52 10,8 C 9,6 C 92 % 1018,7 hPa 0,0 l/m 0 min 0 min 0,0 UV-I 0 W/m 5,1 km/h (1 Bft)
14.06.2013 03:54 10,8 C 9,6 C 92 % 1018,7 hPa 0,0 l/m 0 min 0 min 0,0 UV-I 0 W/m 5,1 km/h (1 Bft)
14.06.2013 03:56 10,8 C 9,6 C 92 % 1018,7 hPa 0,0 l/m 0 min 0 min 0,0 UV-I 0 W/m 5,1 km/h (1 Bft)
14.06.2013 03:58 10,8 C 9,6 C 92 % 1018,7 hPa 0,0 l/m 0 min 0 min 0,0 UV-I 0 W/m 0,0 km/h (0 Bft)
14.06.2013 04:00 10,8 C 9,6 C 92 % 1018,7 hPa 0,0 l/m 0 min 0 min 0,0 UV-I 0 W/m 7,7 km/h (2 Bft)
14.06.2013 04:02 10,8 C 9,6 C 92 % 1018,7 hPa 0,0 l/m 0 min 0 min 0,0 UV-I 0 W/m 12,9 km/h (3 Bft)
14.06.2013 04:04 10,7 C 9,6 C 92 % 1018,7 hPa 0,0 l/m 0 min 0 min 0,0 UV-I 0 W/m 10,3 km/h (2 Bft)
14.06.2013 04:06 10,7 C 9,6 C 92 % 1018,7 hPa 0,0 l/m 0 min 0 min 0,0 UV-I 0 W/m 0,0 km/h (0 Bft)
14.06.2013 04:08 10,7 C 9,6 C 92 % 1018,8 hPa 0,0 l/m 0 min 0 min 0,0 UV-I 0 W/m 5,1 km/h (1 Bft)
14.06.2013 04:10 10,7 C 9,6 C 92 % 1018,8 hPa 0,0 l/m 0 min 0 min 0,0 UV-I 0 W/m 12,9 km/h (3 Bft)
14.06.2013 04:12 10,7 C 9,6 C 92 % 1018,8 hPa 0,0 l/m 0 min 0 min 0,0 UV-I 0 W/m 15,4 km/h (3 Bft)
14.06.2013 04:14 10,7 C 9,6 C 92 % 1018,8 hPa 0,0 l/m 0 min 0 min 0,0 UV-I 0 W/m 7,7 km/h (2 Bft)
14.06.2013 04:16 10,7 C 9,6 C 92 % 1018,8 hPa 0,0 l/m 0 min 0 min 0,0 UV-I 0 W/m 0,0 km/h (0 Bft)
14.06.2013 04:18 10,7 C 9,6 C 92 % 1018,8 hPa 0,0 l/m 0 min 0 min 0,0 UV-I 0 W/m 10,3 km/h (2 Bft)
14.06.2013 04:20 10,6 C 9,6 C 92 % 1018,8 hPa 0,0 l/m 0 min 0 min 0,0 UV-I 0 W/m 5,1 km/h (1 Bft)
14.06.2013 04:22 10,6 C 9,6 C 92 % 1018,8 hPa 0,0 l/m 0 min 0 min 0,0 UV-I 0 W/m 0,0 km/h (0 Bft)
14.06.2013 04:24 10,6 C 9,6 C 92 % 1018,9 hPa 0,0 l/m 0 min 0 min 0,0 UV-I 0 W/m 10,3 km/h (2 Bft)
14.06.2013 04:26 10,6 C 9,6 C 92 % 1018,9 hPa 0,0 l/m 0 min 0 min 0,0 UV-I 0 W/m 0,0 km/h (0 Bft)
14.06.2013 04:28 10,6 C 9,6 C 92 % 1018,9 hPa 0,0 l/m 0 min 0 min 0,0 UV-I 0 W/m 2,6 km/h (1 Bft)
14.06.2013 04:30 10,6 C 9,0 C 92 % 1018,9 hPa 0,0 l/m 0 min 0 min 0,0 UV-I 0 W/m 0,0 km/h (0 Bft)
14.06.2013 04:32 10,6 C 9,0 C 92 % 1018,9 hPa 0,0 l/m 0 min 0 min 0,0 UV-I 0 W/m 0,0 km/h (0 Bft)
14.06.2013 04:34 10,5 C 9,0 C 92 % 1018,9 hPa 0,0 l/m 0 min 0 min 0,0 UV-I 0 W/m 0,0 km/h (0 Bft)
14.06.2013 04:36 10,5 C 9,0 C 92 % 1019,0 hPa 0,0 l/m 0 min 0 min 0,0 UV-I 0 W/m 7,7 km/h (2 Bft)
14.06.2013 04:38 10,4 C 9,0 C 92 % 1019,0 hPa 0,0 l/m 0 min 0 min 0,0 UV-I 0 W/m 10,3 km/h (2 Bft)
14.06.2013 04:40 10,4 C 9,0 C 92 % 1019,1 hPa 0,0 l/m 0 min 0 min 0,0 UV-I 0 W/m 10,3 km/h (2 Bft)
14.06.2013 04:42 10,4 C 9,0 C 92 % 1019,1 hPa 0,0 l/m 0 min 0 min 0,0 UV-I 0 W/m 12,9 km/h (3 Bft)
14.06.2013 04:44 10,4 C 9,0 C 92 % 1019,0 hPa 0,0 l/m 0 min 0 min 0,0 UV-I 0 W/m 10,3 km/h (2 Bft)
14.06.2013 04:46 10,4 C 9,0 C 92 % 1019,0 hPa 0,0 l/m 0 min 0 min 0,0 UV-I 0 W/m 5,1 km/h (1 Bft)
14.06.2013 04:48 10,4 C 9,0 C 92 % 1019,0 hPa 0,0 l/m 0 min 0 min 0,0 UV-I 0 W/m 5,1 km/h (1 Bft)
14.06.2013 04:50 10,3 C 9,0 C 92 % 1019,0 hPa 0,0 l/m 0 min 0 min 0,0 UV-I 0 W/m 0,0 km/h (0 Bft)
14.06.2013 04:52 10,3 C 9,0 C 92 % 1019,0 hPa 0,0 l/m 0 min 0 min 0,0 UV-I 0 W/m 5,1 km/h (1 Bft)
14.06.2013 04:54 10,3 C 9,0 C 92 % 1019,0 hPa 0,0 l/m 0 min 0 min 0,0 UV-I 0 W/m 5,1 km/h (1 Bft)
14.06.2013 04:56 10,3 C 9,0 C 92 % 1018,9 hPa 0,0 l/m 0 min 0 min 0,0 UV-I 0 W/m 0,0 km/h (0 Bft)
14.06.2013 04:58 10,3 C 9,0 C 92 % 1018,9 hPa 0,0 l/m 0 min 0 min 0,0 UV-I 0 W/m 5,1 km/h (1 Bft)
14.06.2013 05:00 10,3 C 9,0 C 92 % 1018,9 hPa 0,0 l/m 0 min 0 min 0,0 UV-I 0 W/m 0,0 km/h (0 Bft)
14.06.2013 05:02 10,3 C 9,0 C 92 % 1018,9 hPa 0,0 l/m 0 min 0 min 0,0 UV-I 0 W/m 0,0 km/h (0 Bft)
14.06.2013 05:04 10,3 C 9,0 C 92 % 1018,9 hPa 0,0 l/m 0 min 0 min 0,0 UV-I 0 W/m 0,0 km/h (0 Bft)
14.06.2013 05:06 10,2 C 9,0 C 92 % 1019,0 hPa 0,0 l/m 0 min 0 min 0,0 UV-I 0 W/m 2,6 km/h (1 Bft)
14.06.2013 05:08 10,2 C 9,0 C 92 % 1019,0 hPa 0,0 l/m 0 min 0 min 0,0 UV-I 0 W/m 0,0 km/h (0 Bft)
14.06.2013 05:10 10,2 C 9,0 C 92 % 1019,0 hPa 0,0 l/m 0 min 0 min 0,0 UV-I 0 W/m 10,3 km/h (2 Bft)
14.06.2013 05:12 10,2 C 9,0 C 92 % 1019,1 hPa 0,0 l/m 0 min 0 min 0,0 UV-I 0 W/m 2,6 km/h (1 Bft)
14.06.2013 05:14 10,2 C 9,0 C 92 % 1019,1 hPa 0,0 l/m 0 min 0 min 0,0 UV-I 0 W/m 0,0 km/h (0 Bft)
14.06.2013 05:16 10,2 C 9,0 C 92 % 1019,1 hPa 0,0 l/m 0 min 0 min 0,0 UV-I 0 W/m 0,0 km/h (0 Bft)
14.06.2013 05:18 10,2 C 9,0 C 92 % 1019,1 hPa 0,0 l/m 0 min 0 min 0,0 UV-I 5 W/m 0,0 km/h (0 Bft)
14.06.2013 05:20 10,2 C 9,0 C 92 % 1019,1 hPa 0,0 l/m 0 min 0 min 0,0 UV-I 5 W/m 0,0 km/h (0 Bft)
14.06.2013 05:22 10,2 C 9,0 C 92 % 1019,0 hPa 0,0 l/m 0 min 0 min 0,0 UV-I 5 W/m 15,4 km/h (3 Bft)
14.06.2013 05:24 10,1 C 9,0 C 93 % 1019,1 hPa 0,0 l/m 0 min 0 min 0,0 UV-I 5 W/m 2,6 km/h (1 Bft)
14.06.2013 05:26 10,1 C 9,0 C 93 % 1019,1 hPa 0,0 l/m 0 min 0 min 0,0 UV-I 7 W/m 0,0 km/h (0 Bft)
14.06.2013 05:28 10,1 C 9,0 C 93 % 1019,1 hPa 0,0 l/m 0 min 0 min 0,0 UV-I 7 W/m 0,0 km/h (0 Bft)
14.06.2013 05:30 10,1 C 9,0 C 93 % 1019,1 hPa 0,0 l/m 0 min 0 min 0,0 UV-I 7 W/m 0,0 km/h (0 Bft)
14.06.2013 05:32 10,1 C 9,0 C 93 % 1019,1 hPa 0,0 l/m 0 min 0 min 0,0 UV-I 9 W/m 0,0 km/h (0 Bft)
14.06.2013 05:34 10,1 C 9,0 C 93 % 1019,1 hPa 0,0 l/m 0 min 0 min 0,0 UV-I 9 W/m 0,0 km/h (0 Bft)
14.06.2013 05:36 10,1 C 9,0 C 93 % 1019,1 hPa 0,0 l/m 0 min 0 min 0,0 UV-I 9 W/m 0,0 km/h (0 Bft)
14.06.2013 05:38 10,1 C 9,0 C 93 % 1019,0 hPa 0,0 l/m 0 min 0 min 0,0 UV-I 11 W/m 0,0 km/h (0 Bft)
14.06.2013 05:40 10,1 C 9,0 C 93 % 1019,1 hPa 0,0 l/m 0 min 0 min 0,0 UV-I 11 W/m 2,6 km/h (1 Bft)
14.06.2013 05:42 10,0 C 9,0 C 93 % 1019,1 hPa 0,0 l/m 0 min 0 min 0,0 UV-I 12 W/m 0,0 km/h (0 Bft)
14.06.2013 05:44 10,0 C 9,0 C 93 % 1019,1 hPa 0,0 l/m 0 min 0 min 0,0 UV-I 14 W/m 7,7 km/h (2 Bft)
14.06.2013 05:46 10,0 C 9,0 C 96 % 1019,1 hPa 0,0 l/m 0 min 0 min 0,0 UV-I 14 W/m 7,7 km/h (2 Bft)
14.06.2013 05:48 10,0 C 9,0 C 96 % 1019,3 hPa 0,0 l/m 0 min 0 min 0,0 UV-I 16 W/m 0,0 km/h (0 Bft)
14.06.2013 05:50 10,0 C 9,0 C 93 % 1019,3 hPa 0,0 l/m 0 min 0 min 0,0 UV-I 18 W/m 2,6 km/h (1 Bft)
14.06.2013 05:52 10,0 C 9,0 C 93 % 1019,4 hPa 0,0 l/m 0 min 0 min 0,0 UV-I 21 W/m 0,0 km/h (0 Bft)
14.06.2013 05:54 9,9 C 9,0 C 93 % 1019,5 hPa 0,0 l/m 0 min 0 min 0,0 UV-I 28 W/m 2,6 km/h (1 Bft)
14.06.2013 05:56 9,9 C 9,0 C 93 % 1019,4 hPa 0,0 l/m 0 min 0 min 0,0 UV-I 28 W/m 7,7 km/h (2 Bft)
14.06.2013 05:58 9,9 C 9,0 C 93 % 1019,5 hPa 0,0 l/m 0 min 0 min 0,0 UV-I 25 W/m 0,0 km/h (0 Bft)
14.06.2013 06:00 9,9 C 9,0 C 93 % 1019,4 hPa 0,0 l/m 0 min 0 min 0,0 UV-I 25 W/m 0,0 km/h (0 Bft)
14.06.2013 06:02 9,9 C 9,0 C 93 % 1019,4 hPa 0,0 l/m 0 min 0 min 0,0 UV-I 25 W/m 0,0 km/h (0 Bft)
14.06.2013 06:04 9,9 C 9,0 C 93 % 1019,3 hPa 0,0 l/m 0 min 0 min 0,0 UV-I 25 W/m 2,6 km/h (1 Bft)
14.06.2013 06:06 9,9 C 9,0 C 93 % 1019,3 hPa 0,0 l/m 0 min 0 min 0,0 UV-I 23 W/m 0,0 km/h (0 Bft)
14.06.2013 06:08 9,9 C 9,0 C 93 % 1019,4 hPa 0,0 l/m 0 min 0 min 0,0 UV-I 28 W/m 0,0 km/h (0 Bft)
14.06.2013 06:10 9,9 C 9,6 C 93 % 1019,4 hPa 0,0 l/m 0 min 0 min 0,0 UV-I 33 W/m 0,0 km/h (0 Bft)
14.06.2013 06:12 9,9 C 9,6 C 93 % 1019,4 hPa 0,0 l/m 0 min 0 min 0,0 UV-I 37 W/m 2,6 km/h (1 Bft)
14.06.2013 06:14 10,0 C 9,6 C 93 % 1019,5 hPa 0,0 l/m 0 min 0 min 0,0 UV-I 39 W/m 0,0 km/h (0 Bft)
14.06.2013 06:16 10,0 C 9,6 C 94 % 1019,5 hPa 0,0 l/m 0 min 0 min 0,0 UV-I 40 W/m 0,0 km/h (0 Bft)
14.06.2013 06:18 10,0 C 9,6 C 94 % 1019,5 hPa 0,0 l/m 0 min 0 min 0,0 UV-I 42 W/m 0,0 km/h (0 Bft)
14.06.2013 06:20 10,1 C 9,6 C 94 % 1019,5 hPa 0,0 l/m 0 min 0 min 0,0 UV-I 44 W/m 0,0 km/h (0 Bft)
14.06.2013 06:22 10,1 C 9,6 C 94 % 1019,5 hPa 0,0 l/m 0 min 0 min 0,0 UV-I 49 W/m 12,9 km/h (3 Bft)
14.06.2013 06:24 10,1 C 9,6 C 94 % 1019,5 hPa 0,0 l/m 0 min 0 min 0,0 UV-I 51 W/m 0,0 km/h (0 Bft)
14.06.2013 06:26 10,1 C 9,6 C 94 % 1019,5 hPa 0,0 l/m 0 min 0 min 0,0 UV-I 49 W/m 10,3 km/h (2 Bft)
14.06.2013 06:28 10,1 C 9,6 C 94 % 1019,5 hPa 0,0 l/m 0 min 0 min 0,0 UV-I 54 W/m 0,0 km/h (0 Bft)
14.06.2013 06:30 10,1 C 10,1 C 94 % 1019,6 hPa 0,0 l/m 0 min 0 min 0,0 UV-I 51 W/m 0,0 km/h (0 Bft)
14.06.2013 06:32 10,2 C 10,1 C 94 % 1019,6 hPa 0,0 l/m 0 min 0 min 0,0 UV-I 49 W/m 0,0 km/h (0 Bft)
14.06.2013 06:34 10,2 C 10,1 C 94 % 1019,6 hPa 0,0 l/m 0 min 0 min 0,0 UV-I 54 W/m 0,0 km/h (0 Bft)
14.06.2013 06:36 10,2 C 10,1 C 94 % 1019,7 hPa 0,0 l/m 0 min 0 min 0,0 UV-I 58 W/m 5,1 km/h (1 Bft)
14.06.2013 06:38 10,3 C 10,1 C 94 % 1019,7 hPa 0,0 l/m 0 min 0 min 0,0 UV-I 60 W/m 0,0 km/h (0 Bft)
14.06.2013 06:40 10,3 C 10,1 C 94 % 1019,7 hPa 0,0 l/m 0 min 0 min 0,0 UV-I 60 W/m 7,7 km/h (2 Bft)
14.06.2013 06:42 10,3 C 10,1 C 94 % 1019,8 hPa 0,0 l/m 0 min 0 min 0,0 UV-I 60 W/m 0,0 km/h (0 Bft)
14.06.2013 06:44 10,3 C 10,1 C 94 % 1019,7 hPa 0,0 l/m 0 min 0 min 0,0 UV-I 60 W/m 15,4 km/h (3 Bft)
14.06.2013 06:46 10,3 C 10,1 C 94 % 1019,8 hPa 0,0 l/m 0 min 0 min 0,0 UV-I 62 W/m 15,4 km/h (3 Bft)
14.06.2013 06:48 10,4 C 10,1 C 94 % 1019,7 hPa 0,0 l/m 0 min 0 min 0,0 UV-I 62 W/m 10,3 km/h (2 Bft)
14.06.2013 06:50 10,4 C 10,1 C 94 % 1019,8 hPa 0,0 l/m 0 min 0 min 0,0 UV-I 58 W/m 10,3 km/h (2 Bft)
14.06.2013 06:52 10,4 C 10,1 C 94 % 1019,8 hPa 0,0 l/m 0 min 0 min 0,0 UV-I 62 W/m 7,7 km/h (2 Bft)
14.06.2013 06:54 10,4 C 10,1 C 94 % 1019,9 hPa 0,0 l/m 0 min 0 min 0,0 UV-I 69 W/m 7,7 km/h (2 Bft)
14.06.2013 06:56 10,4 C 10,1 C 94 % 1019,9 hPa 0,0 l/m 0 min 0 min 0,0 UV-I 81 W/m 5,1 km/h (1 Bft)
14.06.2013 06:58 10,5 C 10,1 C 94 % 1019,9 hPa 0,0 l/m 0 min 0 min 0,0 UV-I 90 W/m 5,1 km/h (1 Bft)
14.06.2013 07:00 10,5 C 10,1 C 94 % 1019,9 hPa 0,0 l/m 0 min 0 min 0,0 UV-I 91 W/m 10,3 km/h (2 Bft)
14.06.2013 07:02 10,6 C 10,1 C 94 % 1019,9 hPa 0,0 l/m 0 min 0 min 0,0 UV-I 84 W/m 10,3 km/h (2 Bft)
14.06.2013 07:04 10,6 C 10,1 C 94 % 1020,0 hPa 0,0 l/m 0 min 0 min 0,0 UV-I 77 W/m 0,0 km/h (0 Bft)
14.06.2013 07:06 10,6 C 10,1 C 94 % 1020,0 hPa 0,0 l/m 0 min 0 min 0,0 UV-I 72 W/m 0,0 km/h (0 Bft)
14.06.2013 07:08 10,6 C 10,1 C 94 % 1019,9 hPa 0,0 l/m 0 min 0 min 0,0 UV-I 70 W/m 0,0 km/h (0 Bft)
14.06.2013 07:10 10,7 C 10,1 C 94 % 1020,0 hPa 0,0 l/m 0 min 0 min 0,0 UV-I 62 W/m 10,3 km/h (2 Bft)
14.06.2013 07:12 10,6 C 10,1 C 94 % 1020,0 hPa 0,0 l/m 0 min 0 min 0,0 UV-I 51 W/m 7,7 km/h (2 Bft)
14.06.2013 07:14 10,7 C 10,1 C 94 % 1020,0 hPa 0,0 l/m 0 min 0 min 0,0 UV-I 44 W/m 0,0 km/h (0 Bft)
14.06.2013 07:16 10,7 C 10,1 C 94 % 1020,0 hPa 0,0 l/m 0 min 0 min 0,0 UV-I 53 W/m 5,1 km/h (1 Bft)
14.06.2013 07:18 10,7 C 10,1 C 93 % 1020,0 hPa 0,0 l/m 0 min 0 min 0,0 UV-I 69 W/m 7,7 km/h (2 Bft)
14.06.2013 07:20 10,7 C 10,1 C 93 % 1020,0 hPa 0,0 l/m 0 min 0 min 0,0 UV-I 109 W/m 0,0 km/h (0 Bft)
14.06.2013 07:22 10,7 C 10,1 C 93 % 1020,1 hPa 0,0 l/m 0 min 0 min 0,0 UV-I 127 W/m 0,0 km/h (0 Bft)
14.06.2013 07:24 10,7 C 10,7 C 93 % 1020,0 hPa 0,0 l/m 0 min 0 min 0,0 UV-I 111 W/m 0,0 km/h (0 Bft)
14.06.2013 07:26 10,8 C 10,7 C 93 % 1020,1 hPa 0,0 l/m 0 min 0 min 0,0 UV-I 130 W/m 5,1 km/h (1 Bft)
14.06.2013 07:28 10,8 C 10,7 C 93 % 1020,1 hPa 0,0 l/m 0 min 0 min 0,0 UV-I 111 W/m 2,6 km/h (1 Bft)
14.06.2013 07:30 10,8 C 10,7 C 93 % 1020,1 hPa 0,0 l/m 0 min 0 min 0,0 UV-I 151 W/m 7,7 km/h (2 Bft)
14.06.2013 07:32 10,9 C 10,7 C 93 % 1020,1 hPa 0,0 l/m 0 min 0 min 0,0 UV-I 132 W/m 15,4 km/h (3 Bft)
14.06.2013 07:34 10,9 C 10,7 C 94 % 1020,1 hPa 0,0 l/m 0 min 0 min 0,0 UV-I 123 W/m 15,4 km/h (3 Bft)
14.06.2013 07:36 10,9 C 10,7 C 94 % 1020,1 hPa 0,0 l/m 0 min 0 min 0,0 UV-I 135 W/m 12,9 km/h (3 Bft)
14.06.2013 07:38 11,0 C 11,2 C 93 % 1020,2 hPa 0,0 l/m 0 min 0 min 0,0 UV-I 134 W/m 20,6 km/h (4 Bft)
14.06.2013 07:40 11,1 C 11,2 C 93 % 1020,3 hPa 0,0 l/m 0 min 0 min 0,0 UV-I 123 W/m 15,4 km/h (3 Bft)
14.06.2013 07:42 11,1 C 11,2 C 93 % 1020,1 hPa 0,0 l/m 0 min 0 min 0,0 UV-I 163 W/m 15,4 km/h (3 Bft)
14.06.2013 07:44 11,1 C 11,2 C 93 % 1020,1 hPa 0,0 l/m 0 min 0 min 0,0 UV-I 132 W/m 5,1 km/h (1 Bft)
14.06.2013 07:46 11,2 C 11,2 C 93 % 1020,1 hPa 0,0 l/m 0 min 0 min 0,0 UV-I 142 W/m 5,1 km/h (1 Bft)
14.06.2013 07:48 11,2 C 11,2 C 93 % 1020,0 hPa 0,0 l/m 0 min 0 min 0,0 UV-I 137 W/m 10,3 km/h (2 Bft)
14.06.2013 07:50 11,3 C 11,2 C 93 % 1020,0 hPa 0,0 l/m 0 min 0 min 0,0 UV-I 155 W/m 5,1 km/h (1 Bft)
14.06.2013 07:52 11,3 C 11,2 C 93 % 1020,0 hPa 0,0 l/m 0 min 0 min 0,0 UV-I 146 W/m 2,6 km/h (1 Bft)
14.06.2013 07:54 11,3 C 11,2 C 93 % 1020,0 hPa 0,0 l/m 0 min 0 min 0,0 UV-I 141 W/m 12,9 km/h (3 Bft)
14.06.2013 07:56 11,4 C 11,2 C 93 % 1020,0 hPa 0,0 l/m 0 min 0 min 0,0 UV-I 141 W/m 5,1 km/h (1 Bft)
14.06.2013 07:58 11,4 C 11,2 C 93 % 1020,0 hPa 0,0 l/m 0 min 0 min 0,0 UV-I 158 W/m 7,7 km/h (2 Bft)
14.06.2013 08:00 11,4 C 11,2 C 93 % 1020,1 hPa 0,0 l/m 0 min 0 min 0,0 UV-I 162 W/m 15,4 km/h (3 Bft)
14.06.2013 08:02 11,5 C 11,2 C 92 % 1020,1 hPa 0,0 l/m 0 min 0 min 0,0 UV-I 149 W/m 7,7 km/h (2 Bft)
14.06.2013 08:04 11,5 C 11,8 C 93 % 1020,1 hPa 0,0 l/m 0 min 0 min 0,0 UV-I 162 W/m 0,0 km/h (0 Bft)
14.06.2013 08:06 11,6 C 11,8 C 92 % 1020,2 hPa 0,0 l/m 0 min 0 min 0,0 UV-I 139 W/m 2,6 km/h (1 Bft)
14.06.2013 08:08 11,6 C 11,8 C 92 % 1020,2 hPa 0,0 l/m 0 min 0 min 0,0 UV-I 148 W/m 12,9 km/h (3 Bft)
14.06.2013 08:10 11,6 C 11,2 C 92 % 1020,3 hPa 0,0 l/m 0 min 0 min 0,0 UV-I 146 W/m 15,4 km/h (3 Bft)
14.06.2013 08:12 11,6 C 11,8 C 92 % 1020,3 hPa 0,0 l/m 0 min 0 min 0,0 UV-I 153 W/m 7,7 km/h (2 Bft)
14.06.2013 08:14 11,7 C 11,8 C 92 % 1020,4 hPa 0,0 l/m 0 min 0 min 0,0 UV-I 176 W/m 12,9 km/h (3 Bft)
14.06.2013 08:16 11,7 C 11,8 C 91 % 1020,3 hPa 0,0 l/m 0 min 0 min 0,0 UV-I 172 W/m 10,3 km/h (2 Bft)
14.06.2013 08:18 11,7 C 11,8 C 91 % 1020,5 hPa 0,0 l/m 0 min 0 min 0,0 UV-I 176 W/m 2,6 km/h (1 Bft)
14.06.2013 08:20 11,7 C 11,8 C 91 % 1020,5 hPa 0,0 l/m 0 min 0 min 0,0 UV-I 192 W/m 15,4 km/h (3 Bft)
14.06.2013 08:22 11,7 C 11,8 C 91 % 1020,5 hPa 0,0 l/m 0 min 0 min 0,0 UV-I 162 W/m 28,3 km/h (4 Bft)
14.06.2013 08:24 11,8 C 11,8 C 91 % 1020,5 hPa 0,0 l/m 0 min 0 min 0,0 UV-I 171 W/m 10,3 km/h (2 Bft)
14.06.2013 08:26 11,8 C 11,8 C 91 % 1020,5 hPa 0,0 l/m 0 min 0 min 0,0 UV-I 167 W/m 12,9 km/h (3 Bft)
14.06.2013 08:28 11,8 C 11,8 C 90 % 1020,5 hPa 0,0 l/m 0 min 0 min 0,0 UV-I 158 W/m 12,9 km/h (3 Bft)
14.06.2013 08:30 11,8 C 11,8 C 90 % 1020,6 hPa 0,0 l/m 0 min 0 min 0,0 UV-I 153 W/m 12,9 km/h (3 Bft)
14.06.2013 08:32 11,8 C 11,8 C 90 % 1020,6 hPa 0,0 l/m 0 min 0 min 0,0 UV-I 155 W/m 7,7 km/h (2 Bft)
14.06.2013 08:34 11,9 C 11,8 C 91 % 1020,5 hPa 0,0 l/m 0 min 0 min 0,0 UV-I 176 W/m 0,0 km/h (0 Bft)
14.06.2013 08:36 11,9 C 11,8 C 91 % 1020,6 hPa 0,0 l/m 0 min 0 min 0,0 UV-I 190 W/m 18,0 km/h (3 Bft)
14.06.2013 08:38 11,9 C 11,8 C 91 % 1020,6 hPa 0,0 l/m 0 min 0 min 0,0 UV-I 213 W/m 10,3 km/h (2 Bft)
14.06.2013 08:40 12,0 C 12,3 C 90 % 1020,5 hPa 0,0 l/m 0 min 0 min 0,0 UV-I 193 W/m 2,6 km/h (1 Bft)
14.06.2013 08:42 12,0 C 12,3 C 90 % 1020,6 hPa 0,0 l/m 0 min 0 min 0,0 UV-I 183 W/m 12,9 km/h (3 Bft)
14.06.2013 08:44 12,1 C 11,8 C 90 % 1020,6 hPa 0,0 l/m 0 min 0 min 0,0 UV-I 160 W/m 12,9 km/h (3 Bft)
14.06.2013 08:46 12,1 C 12,3 C 90 % 1020,6 hPa 0,0 l/m 0 min 0 min 0,0 UV-I 172 W/m 12,9 km/h (3 Bft)
14.06.2013 08:48 12,1 C 12,3 C 90 % 1020,6 hPa 0,0 l/m 0 min 0 min 0,0 UV-I 185 W/m 12,9 km/h (3 Bft)
14.06.2013 08:50 12,1 C 11,8 C 90 % 1020,6 hPa 0,0 l/m 0 min 0 min 0,0 UV-I 188 W/m 12,9 km/h (3 Bft)
14.06.2013 08:52 12,1 C 11,8 C 89 % 1020,6 hPa 0,0 l/m 0 min 0 min 0,0 UV-I 185 W/m 12,9 km/h (3 Bft)
14.06.2013 08:54 12,2 C 12,3 C 89 % 1020,6 hPa 0,0 l/m 0 min 0 min 0,0 UV-I 160 W/m 10,3 km/h (2 Bft)
14.06.2013 08:56 12,2 C 12,3 C 89 % 1020,7 hPa 0,0 l/m 0 min 0 min 0,0 UV-I 165 W/m 12,9 km/h (3 Bft)
14.06.2013 08:58 12,2 C 12,3 C 89 % 1020,6 hPa 0,0 l/m 0 min 0 min 0,0 UV-I 179 W/m 0,0 km/h (0 Bft)
14.06.2013 09:00 12,2 C 12,3 C 89 % 1020,7 hPa 0,0 l/m 0 min 0 min 0,0 UV-I 264 W/m 5,1 km/h (1 Bft)
14.06.2013 09:02 12,3 C 12,3 C 89 % 1020,7 hPa 0,0 l/m 0 min 0 min 0,0 UV-I 211 W/m 12,9 km/h (3 Bft)
14.06.2013 09:04 12,3 C 12,9 C 89 % 1020,7 hPa 0,0 l/m 0 min 0 min 0,0 UV-I 232 W/m 5,1 km/h (1 Bft)
14.06.2013 09:06 12,3 C 12,9 C 89 % 1020,7 hPa 0,0 l/m 0 min 0 min 0,0 UV-I 230 W/m 5,1 km/h (1 Bft)
14.06.2013 09:07 12,4 C 12,9 C 89 % 1020,7 hPa 0,0 l/m 0 min 0 min 0,0 UV-I 257 W/m 2,6 km/h (1 Bft)
14.06.2013 09:08 12,4 C 12,9 C 89 % 1020,7 hPa 0,0 l/m 0 min 0 min 0,0 UV-I 246 W/m 10,3 km/h (2 Bft)
14.06.2013 09:09 12,4 C 12,9 C 89 % 1020,7 hPa 0,0 l/m 0 min 0 min 0,0 UV-I 239 W/m 0,0 km/h (0 Bft)
14.06.2013 09:10 12,4 C 12,9 C 89 % 1020,8 hPa 0,0 l/m 0 min 0 min 0,0 UV-I 223 W/m 5,1 km/h (1 Bft)
14.06.2013 09:11 12,4 C 12,9 C 89 % 1020,8 hPa 0,0 l/m 1 min 0 min 0,0 UV-I 315 W/m 5,1 km/h (1 Bft)
14.06.2013 09:12 12,5 C 12,9 C 89 % 1020,8 hPa 0,0 l/m 1 min 0 min 0,6 UV-I 369 W/m 10,3 km/h (2 Bft)
14.06.2013 09:13 12,5 C 12,9 C 89 % 1020,7 hPa 0,0 l/m 1 min 0 min 0,5 UV-I 369 W/m 7,7 km/h (2 Bft)
14.06.2013 09:14 12,5 C 12,9 C 89 % 1020,8 hPa 0,0 l/m 0 min 0 min 0,0 UV-I 227 W/m 0,0 km/h (0 Bft)
14.06.2013 09:15 12,6 C 12,9 C 89 % 1020,8 hPa 0,0 l/m 0 min 0 min 0,0 UV-I 229 W/m 2,6 km/h (1 Bft)
14.06.2013 09:16 12,6 C 12,9 C 88 % 1020,8 hPa 0,0 l/m 0 min 0 min 0,5 UV-I 257 W/m 5,1 km/h (1 Bft)
14.06.2013 09:17 12,6 C 13,4 C 88 % 1020,8 hPa 0,0 l/m 1 min 0 min 0,5 UV-I 306 W/m 10,3 km/h (2 Bft)
14.06.2013 09:18 12,6 C 13,4 C 88 % 1020,8 hPa 0,0 l/m 1 min 0 min 0,6 UV-I 322 W/m 5,1 km/h (1 Bft)
14.06.2013 09:19 12,7 C 13,4 C 88 % 1020,8 hPa 0,0 l/m 0 min 0 min 0,6 UV-I 269 W/m 0,0 km/h (0 Bft)
14.06.2013 09:20 12,7 C 13,4 C 88 % 1020,7 hPa 0,0 l/m 0 min 0 min 0,7 UV-I 279 W/m 5,1 km/h (1 Bft)
14.06.2013 09:21 12,7 C 13,4 C 88 % 1020,7 hPa 0,0 l/m 0 min 0 min 1,1 UV-I 279 W/m 5,1 km/h (1 Bft)
14.06.2013 09:22 12,8 C 13,4 C 88 % 1020,8 hPa 0,0 l/m 0 min 0 min 0,8 UV-I 279 W/m 7,7 km/h (2 Bft)
14.06.2013 09:23 12,8 C 13,4 C 89 % 1020,8 hPa 0,0 l/m 0 min 0 min 0,7 UV-I 299 W/m 10,3 km/h (2 Bft)
14.06.2013 09:24 12,8 C 13,4 C 89 % 1020,7 hPa 0,0 l/m 0 min 0 min 0,7 UV-I 290 W/m 10,3 km/h (2 Bft)
14.06.2013 09:25 12,8 C 13,4 C 88 % 1020,8 hPa 0,0 l/m 0 min 0 min 0,6 UV-I 272 W/m 23,2 km/h (4 Bft)
14.06.2013 09:26 12,9 C 12,9 C 88 % 1020,8 hPa 0,0 l/m 1 min 0 min 0,8 UV-I 316 W/m 0,0 km/h (0 Bft)
14.06.2013 09:27 12,9 C 12,9 C 87 % 1020,7 hPa 0,0 l/m 0 min 0 min 0,7 UV-I 276 W/m 10,3 km/h (2 Bft)
14.06.2013 09:28 12,9 C 13,4 C 87 % 1020,8 hPa 0,0 l/m 0 min 0 min 0,7 UV-I 272 W/m 5,1 km/h (1 Bft)
14.06.2013 09:29 12,9 C 13,4 C 87 % 1020,7 hPa 0,0 l/m 0 min 0 min 0,8 UV-I 297 W/m 12,9 km/h (3 Bft)
14.06.2013 09:30 12,9 C 12,9 C 87 % 1020,7 hPa 0,0 l/m 0 min 0 min 0,9 UV-I 299 W/m 12,9 km/h (3 Bft)
14.06.2013 09:31 13,0 C 13,4 C 87 % 1020,7 hPa 0,0 l/m 0 min 0 min 0,8 UV-I 297 W/m 12,9 km/h (3 Bft)
14.06.2013 09:32 13,0 C 13,4 C 87 % 1020,7 hPa 0,0 l/m 0 min 0 min 0,9 UV-I 297 W/m 7,7 km/h (2 Bft)
14.06.2013 09:33 13,1 C 13,4 C 87 % 1020,7 hPa 0,0 l/m 0 min 0 min 0,7 UV-I 297 W/m 7,7 km/h (2 Bft)
14.06.2013 09:34 13,1 C 13,4 C 87 % 1020,8 hPa 0,0 l/m 0 min 0 min 0,6 UV-I 290 W/m 5,1 km/h (1 Bft)
14.06.2013 09:35 13,1 C 13,4 C 87 % 1020,8 hPa 0,0 l/m 0 min 0 min 0,6 UV-I 285 W/m 7,7 km/h (2 Bft)
14.06.2013 09:36 13,2 C 13,4 C 87 % 1020,7 hPa 0,0 l/m 0 min 0 min 0,7 UV-I 288 W/m 7,7 km/h (2 Bft)
14.06.2013 09:37 13,2 C 13,4 C 87 % 1020,8 hPa 0,0 l/m 0 min 0 min 0,7 UV-I 315 W/m 12,9 km/h (3 Bft)
14.06.2013 09:38 13,2 C 13,4 C 86 % 1020,7 hPa 0,0 l/m 0 min 0 min 0,7 UV-I 311 W/m 5,1 km/h (1 Bft)
14.06.2013 09:39 13,2 C 13,4 C 86 % 1020,7 hPa 0,0 l/m 0 min 0 min 0,7 UV-I 294 W/m 15,4 km/h (3 Bft)
14.06.2013 09:40 13,2 C 13,4 C 86 % 1020,7 hPa 0,0 l/m 0 min 0 min 0,7 UV-I 288 W/m 10,3 km/h (2 Bft)
14.06.2013 09:41 13,2 C 13,4 C 86 % 1020,7 hPa 0,0 l/m 0 min 0 min 0,7 UV-I 295 W/m 12,9 km/h (3 Bft)
14.06.2013 09:42 13,2 C 13,4 C 86 % 1020,7 hPa 0,0 l/m 0 min 0 min 0,6 UV-I 264 W/m 18,0 km/h (3 Bft)
14.06.2013 09:43 13,2 C 13,4 C 86 % 1020,7 hPa 0,0 l/m 0 min 0 min 0,7 UV-I 257 W/m 7,7 km/h (2 Bft)
14.06.2013 09:44 13,2 C 13,4 C 86 % 1020,7 hPa 0,0 l/m 0 min 0 min 0,6 UV-I 206 W/m 12,9 km/h (3 Bft)
14.06.2013 09:45 13,2 C 13,4 C 86 % 1020,6 hPa 0,0 l/m 0 min 0 min 0,7 UV-I 287 W/m 15,4 km/h (3 Bft)
14.06.2013 09:46 13,2 C 13,4 C 86 % 1020,6 hPa 0,0 l/m 0 min 0 min 0,8 UV-I 295 W/m 7,7 km/h (2 Bft)
14.06.2013 09:50 13,3 C 13,4 C 86 % 1020,7 hPa 0,0 l/m 0 min 0 min 0,8 UV-I 327 W/m 12,9 km/h (3 Bft)
14.06.2013 09:52 13,3 C 13,4 C 86 % 1020,8 hPa 0,0 l/m 0 min 0 min 0,8 UV-I 302 W/m 15,4 km/h (3 Bft)
14.06.2013 09:54 13,3 C 13,4 C 86 % 1020,7 hPa 0,0 l/m 0 min 0 min 1,0 UV-I 330 W/m 12,9 km/h (3 Bft)
14.06.2013 09:56 13,3 C 14,0 C 85 % 1020,7 hPa 0,0 l/m 2 min 0 min 1,5 UV-I 410 W/m 7,7 km/h (2 Bft)
14.06.2013 09:58 13,3 C 14,0 C 86 % 1020,7 hPa 0,0 l/m 2 min 0 min 1,2 UV-I 399 W/m 7,7 km/h (2 Bft)
14.06.2013 10:00 13,4 C 14,6 C 86 % 1020,7 hPa 0,0 l/m 2 min 0 min 1,2 UV-I 381 W/m 12,9 km/h (3 Bft)
14.06.2013 10:02 13,5 C 14,6 C 85 % 1020,8 hPa 0,0 l/m 0 min 0 min 1,2 UV-I 343 W/m 12,9 km/h (3 Bft)
14.06.2013 10:04 13,5 C 14,6 C 85 % 1020,7 hPa 0,0 l/m 0 min 0 min 1,1 UV-I 297 W/m 15,4 km/h (3 Bft)
14.06.2013 10:06 13,6 C 14,0 C 85 % 1020,7 hPa 0,0 l/m 0 min 0 min 1,2 UV-I 264 W/m 10,3 km/h (2 Bft)
14.06.2013 10:08 13,6 C 13,4 C 85 % 1020,8 hPa 0,0 l/m 0 min 0 min 1,2 UV-I 237 W/m 20,6 km/h (4 Bft)
14.06.2013 10:10 13,6 C 13,4 C 84 % 1020,8 hPa 0,0 l/m 0 min 0 min 1,3 UV-I 353 W/m 15,4 km/h (3 Bft)
14.06.2013 10:12 13,6 C 14,0 C 84 % 1020,8 hPa 0,0 l/m 2 min 0 min 1,2 UV-I 431 W/m 12,9 km/h (3 Bft)
14.06.2013 10:14 13,6 C 14,0 C 84 % 1020,8 hPa 0,0 l/m 0 min 0 min 1,2 UV-I 316 W/m 20,6 km/h (4 Bft)
14.06.2013 10:16 13,6 C 13,4 C 84 % 1020,9 hPa 0,0 l/m 0 min 0 min 1,0 UV-I 308 W/m 10,3 km/h (2 Bft)
14.06.2013 10:18 13,6 C 13,4 C 84 % 1020,7 hPa 0,0 l/m 0 min 0 min 1,1 UV-I 301 W/m 15,4 km/h (3 Bft)
14.06.2013 10:20 13,6 C 14,0 C 84 % 1020,8 hPa 0,0 l/m 0 min 0 min 1,1 UV-I 283 W/m 10,3 km/h (2 Bft)
14.06.2013 10:22 13,6 C 14,0 C 84 % 1020,8 hPa 0,0 l/m 0 min 0 min 1,1 UV-I 267 W/m 7,7 km/h (2 Bft)
14.06.2013 10:24 13,6 C 14,0 C 84 % 1020,8 hPa 0,0 l/m 0 min 0 min 1,2 UV-I 274 W/m 7,7 km/h (2 Bft)
14.06.2013 10:26 13,6 C 14,0 C 84 % 1020,9 hPa 0,0 l/m 0 min 0 min 1,2 UV-I 294 W/m 7,7 km/h (2 Bft)
14.06.2013 10:28 13,6 C 14,0 C 84 % 1020,8 hPa 0,0 l/m 0 min 0 min 1,2 UV-I 265 W/m 5,1 km/h (1 Bft)
14.06.2013 10:30 13,7 C 14,0 C 84 % 1020,8 hPa 0,0 l/m 0 min 0 min 1,1 UV-I 276 W/m 10,3 km/h (2 Bft)
14.06.2013 10:32 13,7 C 14,0 C 84 % 1020,8 hPa 0,0 l/m 0 min 0 min 0,9 UV-I 265 W/m 2,6 km/h (1 Bft)
14.06.2013 10:34 13,7 C 14,0 C 84 % 1020,9 hPa 0,0 l/m 0 min 0 min 0,8 UV-I 253 W/m 7,7 km/h (2 Bft)
14.06.2013 10:36 13,7 C 14,0 C 84 % 1020,8 hPa 0,0 l/m 0 min 0 min 0,8 UV-I 246 W/m 15,4 km/h (3 Bft)
14.06.2013 10:38 13,7 C 14,0 C 84 % 1020,9 hPa 0,0 l/m 0 min 0 min 0,9 UV-I 244 W/m 10,3 km/h (2 Bft)
14.06.2013 10:40 13,7 C 14,0 C 84 % 1020,8 hPa 0,0 l/m 0 min 0 min 1,1 UV-I 285 W/m 10,3 km/h (2 Bft)
14.06.2013 10:42 13,8 C 14,0 C 84 % 1020,8 hPa 0,0 l/m 0 min 0 min 1,1 UV-I 297 W/m 7,7 km/h (2 Bft)
14.06.2013 10:44 13,8 C 14,0 C 84 % 1020,8 hPa 0,0 l/m 0 min 0 min 1,2 UV-I 285 W/m 18,0 km/h (3 Bft)
14.06.2013 10:46 13,8 C 14,0 C 83 % 1020,8 hPa 0,0 l/m 0 min 0 min 1,4 UV-I 339 W/m 10,3 km/h (2 Bft)
14.06.2013 10:48 13,8 C 14,0 C 84 % 1020,8 hPa 0,0 l/m 0 min 0 min 1,2 UV-I 322 W/m 7,7 km/h (2 Bft)
14.06.2013 10:50 13,8 C 14,6 C 84 % 1020,8 hPa 0,0 l/m 0 min 0 min 1,3 UV-I 295 W/m 15,4 km/h (3 Bft)
14.06.2013 10:52 13,9 C 14,6 C 84 % 1020,8 hPa 0,0 l/m 0 min 0 min 1,3 UV-I 323 W/m 7,7 km/h (2 Bft)
14.06.2013 10:54 13,9 C 14,6 C 84 % 1020,8 hPa 0,0 l/m 0 min 0 min 1,5 UV-I 392 W/m 7,7 km/h (2 Bft)
14.06.2013 10:56 14,0 C 14,6 C 84 % 1020,8 hPa 0,0 l/m 0 min 0 min 1,1 UV-I 311 W/m 7,7 km/h (2 Bft)
14.06.2013 10:58 14,0 C 14,6 C 84 % 1020,8 hPa 0,0 l/m 0 min 0 min 1,3 UV-I 309 W/m 10,3 km/h (2 Bft)
14.06.2013 11:00 14,0 C 14,6 C 83 % 1020,9 hPa 0,0 l/m 0 min 0 min 1,6 UV-I 309 W/m 25,7 km/h (4 Bft)
14.06.2013 11:02 14,0 C 15,1 C 83 % 1020,8 hPa 0,0 l/m 0 min 0 min 1,8 UV-I 345 W/m 12,9 km/h (3 Bft)
14.06.2013 11:04 14,0 C 15,1 C 83 % 1020,8 hPa 0,0 l/m 0 min 0 min 1,8 UV-I 318 W/m 10,3 km/h (2 Bft)
14.06.2013 11:06 14,0 C 14,6 C 82 % 1020,7 hPa 0,0 l/m 0 min 0 min 1,4 UV-I 308 W/m 12,9 km/h (3 Bft)
14.06.2013 11:08 14,0 C 14,6 C 82 % 1020,8 hPa 0,0 l/m 0 min 0 min 1,2 UV-I 304 W/m 10,3 km/h (2 Bft)
14.06.2013 11:10 14,1 C 14,6 C 82 % 1020,7 hPa 0,0 l/m 0 min 0 min 1,0 UV-I 239 W/m 7,7 km/h (2 Bft)
14.06.2013 11:12 14,1 C 14,6 C 82 % 1020,7 hPa 0,0 l/m 0 min 0 min 1,0 UV-I 234 W/m 2,6 km/h (1 Bft)
14.06.2013 11:14 14,2 C 14,6 C 82 % 1020,7 hPa 0,0 l/m 0 min 0 min 1,0 UV-I 243 W/m 7,7 km/h (2 Bft)
14.06.2013 11:16 14,2 C 14,6 C 82 % 1020,7 hPa 0,0 l/m 0 min 0 min 0,8 UV-I 225 W/m 0,0 km/h (0 Bft)
14.06.2013 11:18 14,2 C 14,6 C 82 % 1020,6 hPa 0,0 l/m 0 min 0 min 0,6 UV-I 204 W/m 5,1 km/h (1 Bft)
14.06.2013 11:20 14,2 C 14,0 C 82 % 1020,5 hPa 0,0 l/m 0 min 0 min 0,7 UV-I 197 W/m 18,0 km/h (3 Bft)
14.06.2013 11:22 14,2 C 14,0 C 81 % 1020,6 hPa 0,0 l/m 0 min 0 min 0,7 UV-I 207 W/m 7,7 km/h (2 Bft)
14.06.2013 11:24 14,2 C 14,0 C 81 % 1020,7 hPa 0,0 l/m 0 min 0 min 0,8 UV-I 225 W/m 12,9 km/h (3 Bft)
14.06.2013 11:26 14,2 C 14,6 C 81 % 1020,6 hPa 0,0 l/m 0 min 0 min 1,0 UV-I 243 W/m 0,0 km/h (0 Bft)
14.06.2013 11:28 14,3 C 14,6 C 81 % 1020,6 hPa 0,0 l/m 0 min 0 min 1,0 UV-I 248 W/m 0,0 km/h (0 Bft)
14.06.2013 11:30 14,3 C 14,6 C 82 % 1020,6 hPa 0,0 l/m 0 min 0 min 1,3 UV-I 279 W/m 0,0 km/h (0 Bft)
14.06.2013 11:32 14,3 C 15,1 C 82 % 1020,6 hPa 0,0 l/m 0 min 0 min 1,7 UV-I 323 W/m 7,7 km/h (2 Bft)
14.06.2013 11:34 14,4 C 15,1 C 82 % 1020,6 hPa 0,0 l/m 0 min 0 min 2,4 UV-I 367 W/m 0,0 km/h (0 Bft)
14.06.2013 11:36 14,6 C 17,9 C 82 % 1020,5 hPa 0,0 l/m 0 min 0 min 3,8 UV-I 367 W/m 2,6 km/h (1 Bft)
14.06.2013 11:38 14,9 C 17,3 C 81 % 1020,6 hPa 0,0 l/m 0 min 0 min 1,9 UV-I 332 W/m 7,7 km/h (2 Bft)
14.06.2013 11:40 14,8 C 16,2 C 78 % 1020,5 hPa 0,0 l/m 0 min 0 min 1,8 UV-I 323 W/m 5,1 km/h (1 Bft)
14.06.2013 11:42 14,8 C 15,7 C 79 % 1020,5 hPa 0,0 l/m 0 min 0 min 1,6 UV-I 283 W/m 7,7 km/h (2 Bft)
14.06.2013 11:44 14,8 C 15,7 C 79 % 1020,6 hPa 0,0 l/m 0 min 0 min 1,5 UV-I 271 W/m 7,7 km/h (2 Bft)
14.06.2013 11:46 14,8 C 15,7 C 80 % 1020,6 hPa 0,0 l/m 0 min 0 min 1,4 UV-I 276 W/m 0,0 km/h (0 Bft)
14.06.2013 11:48 14,7 C 15,1 C 79 % 1020,6 hPa 0,0 l/m 0 min 0 min 1,4 UV-I 295 W/m 15,4 km/h (3 Bft)
14.06.2013 11:50 14,7 C 15,7 C 80 % 1020,7 hPa 0,0 l/m 0 min 0 min 1,9 UV-I 388 W/m 7,7 km/h (2 Bft)
14.06.2013 11:52 14,7 C 15,7 C 79 % 1020,7 hPa 0,0 l/m 0 min 0 min 1,8 UV-I 371 W/m 12,9 km/h (3 Bft)
14.06.2013 11:54 14,7 C 15,7 C 79 % 1020,6 hPa 0,0 l/m 0 min 0 min 2,0 UV-I 380 W/m 5,1 km/h (1 Bft)
14.06.2013 11:56 14,9 C 17,3 C 79 % 1020,6 hPa 0,0 l/m 2 min 0 min 2,2 UV-I 617 W/m 10,3 km/h (2 Bft)
14.06.2013 11:58 15,1 C 16,8 C 79 % 1020,6 hPa 0,0 l/m 0 min 0 min 1,6 UV-I 339 W/m 12,9 km/h (3 Bft)
14.06.2013 12:00 15,1 C 16,8 C 79 % 1020,6 hPa 0,0 l/m 0 min 0 min 1,5 UV-I 308 W/m 10,3 km/h (2 Bft)
14.06.2013 12:02 15,1 C 15,7 C 78 % 1020,5 hPa 0,0 l/m 0 min 0 min 1,6 UV-I 302 W/m 15,4 km/h (3 Bft)
14.06.2013 12:04 14,9 C 15,7 C 78 % 1020,5 hPa 0,0 l/m 0 min 0 min 2,1 UV-I 336 W/m 12,9 km/h (3 Bft)
14.06.2013 12:06 14,8 C 15,7 C 78 % 1020,4 hPa 0,0 l/m 0 min 0 min 2,0 UV-I 294 W/m 12,9 km/h (3 Bft)
14.06.2013 12:08 14,8 C 16,2 C 79 % 1020,4 hPa 0,0 l/m 0 min 0 min 4,8 UV-I 309 W/m 15,4 km/h (3 Bft)
14.06.2013 12:10 15,2 C 19,0 C 80 % 1020,4 hPa 0,0 l/m 2 min 0 min 4,8 UV-I 912 W/m 2,6 km/h (1 Bft)
14.06.2013 12:12 15,7 C 20,1 C 79 % 1020,5 hPa 0,0 l/m 2 min 0 min 4,8 UV-I 912 W/m 12,9 km/h (3 Bft)
14.06.2013 12:14 16,0 C 22,3 C 79 % 1020,3 hPa 0,0 l/m 2 min 0 min 4,7 UV-I 902 W/m 7,7 km/h (2 Bft)
14.06.2013 12:16 16,3 C 22,3 C 76 % 1020,4 hPa 0,0 l/m 2 min 0 min 3,9 UV-I 886 W/m 7,7 km/h (2 Bft)
14.06.2013 12:18 16,4 C 22,9 C 74 % 1020,3 hPa 0,0 l/m 2 min 0 min 5,0 UV-I 953 W/m 7,7 km/h (2 Bft)
14.06.2013 12:20 16,6 C 23,4 C 76 % 1020,3 hPa 0,0 l/m 2 min 0 min 5,2 UV-I 1072 W/m 12,9 km/h (3 Bft)
14.06.2013 12:22 17,1 C 25,1 C 77 % 1020,2 hPa 0,0 l/m 2 min 0 min 4,0 UV-I 1065 W/m 2,6 km/h (1 Bft)
14.06.2013 12:24 17,1 C 21,8 C 74 % 1020,2 hPa 0,0 l/m 0 min 0 min 2,1 UV-I 264 W/m 15,4 km/h (3 Bft)
14.06.2013 12:26 17,1 C 22,3 C 73 % 1020,3 hPa 0,0 l/m 2 min 0 min 5,0 UV-I 1013 W/m 7,7 km/h (2 Bft)
14.06.2013 12:28 17,1 C 23,4 C 74 % 1020,3 hPa 0,0 l/m 2 min 0 min 5,2 UV-I 1056 W/m 10,3 km/h (2 Bft)
14.06.2013 12:30 17,2 C 21,8 C 73 % 1020,3 hPa 0,0 l/m 0 min 0 min 2,2 UV-I 315 W/m 12,9 km/h (3 Bft)
14.06.2013 12:32 16,9 C 21,8 C 72 % 1020,4 hPa 0,0 l/m 2 min 0 min 5,3 UV-I 1067 W/m 12,9 km/h (3 Bft)
14.06.2013 12:34 17,1 C 24,0 C 75 % 1020,3 hPa 0,0 l/m 2 min 0 min 5,3 UV-I 1039 W/m 10,3 km/h (2 Bft)
14.06.2013 12:36 17,3 C 24,6 C 72 % 1020,2 hPa 0,0 l/m 2 min 0 min 5,2 UV-I 1004 W/m 20,6 km/h (4 Bft)
14.06.2013 12:38 17,5 C 25,1 C 73 % 1020,2 hPa 0,0 l/m 2 min 0 min 2,8 UV-I 1046 W/m 5,1 km/h (1 Bft)
14.06.2013 12:40 17,6 C 22,9 C 72 % 1020,3 hPa 0,0 l/m 0 min 0 min 2,3 UV-I 357 W/m 5,1 km/h (1 Bft)
14.06.2013 12:42 17,2 C 20,7 C 72 % 1020,3 hPa 0,0 l/m 0 min 0 min 2,2 UV-I 318 W/m 2,6 km/h (1 Bft)
14.06.2013 12:44 16,9 C 19,6 C 74 % 1020,3 hPa 0,0 l/m 0 min 0 min 2,4 UV-I 313 W/m 5,1 km/h (1 Bft)
14.06.2013 12:46 16,8 C 19,0 C 74 % 1020,2 hPa 0,0 l/m 0 min 0 min 2,3 UV-I 253 W/m 12,9 km/h (3 Bft)
14.06.2013 12:48 16,6 C 20,1 C 73 % 1020,2 hPa 0,0 l/m 2 min 0 min 5,2 UV-I 969 W/m 7,7 km/h (2 Bft)
14.06.2013 12:50 16,6 C 22,3 C 72 % 1020,2 hPa 0,0 l/m 2 min 0 min 5,3 UV-I 963 W/m 2,6 km/h (1 Bft)
14.06.2013 12:52 17,0 C 23,4 C 76 % 1020,1 hPa 0,0 l/m 2 min 0 min 5,2 UV-I 974 W/m 0,0 km/h (0 Bft)
14.06.2013 12:54 17,7 C 24,6 C 76 % 1020,1 hPa 0,0 l/m 2 min 0 min 5,0 UV-I 983 W/m 2,6 km/h (1 Bft)
14.06.2013 12:56 17,8 C 24,0 C 71 % 1020,2 hPa 0,0 l/m 2 min 0 min 4,6 UV-I 977 W/m 18,0 km/h (3 Bft)
14.06.2013 12:58 17,8 C 24,6 C 72 % 1020,3 hPa 0,0 l/m 2 min 0 min 4,1 UV-I 919 W/m 10,3 km/h (2 Bft)
14.06.2013 13:00 18,1 C 26,2 C 73 % 1020,1 hPa 0,0 l/m 2 min 0 min 3,7 UV-I 1004 W/m 7,7 km/h (2 Bft)
14.06.2013 13:02 18,2 C 26,2 C 71 % 1020,1 hPa 0,0 l/m 2 min 0 min 3,3 UV-I 1014 W/m 7,7 km/h (2 Bft)
14.06.2013 13:04 18,2 C 26,8 C 71 % 1020,1 hPa 0,0 l/m 2 min 0 min 2,7 UV-I 1014 W/m 10,3 km/h (2 Bft)
14.06.2013 13:06 18,3 C 26,8 C 71 % 1020,2 hPa 0,0 l/m 2 min 0 min 2,7 UV-I 1016 W/m 7,7 km/h (2 Bft)
14.06.2013 13:08 18,3 C 26,8 C 71 % 1020,2 hPa 0,0 l/m 2 min 0 min 2,8 UV-I 960 W/m 12,9 km/h (3 Bft)
14.06.2013 13:10 18,3 C 26,8 C 71 % 1020,2 hPa 0,0 l/m 2 min 0 min 2,9 UV-I 879 W/m 12,9 km/h (3 Bft)
14.06.2013 13:12 18,5 C 26,8 C 68 % 1020,1 hPa 0,0 l/m 2 min 0 min 2,8 UV-I 879 W/m 5,1 km/h (1 Bft)
14.06.2013 13:14 18,5 C 26,2 C 69 % 1020,0 hPa 0,0 l/m 2 min 0 min 2,8 UV-I 984 W/m 7,7 km/h (2 Bft)
14.06.2013 13:16 18,1 C 23,4 C 67 % 1020,0 hPa 0,0 l/m 0 min 0 min 2,5 UV-I 272 W/m 10,3 km/h (2 Bft)
14.06.2013 13:18 17,8 C 21,2 C 69 % 1020,0 hPa 0,0 l/m 0 min 0 min 2,2 UV-I 278 W/m 15,4 km/h (3 Bft)
14.06.2013 13:20 17,4 C 20,1 C 68 % 1020,0 hPa 0,0 l/m 0 min 0 min 2,4 UV-I 276 W/m 10,3 km/h (2 Bft)
14.06.2013 13:22 17,4 C 22,9 C 71 % 1020,0 hPa 0,0 l/m 2 min 0 min 2,6 UV-I 1104 W/m 5,1 km/h (1 Bft)
14.06.2013 13:24 17,6 C 23,4 C 67 % 1020,0 hPa 0,0 l/m 2 min 0 min 2,2 UV-I 1051 W/m 15,4 km/h (3 Bft)
14.06.2013 13:26 17,8 C 22,9 C 69 % 1019,9 hPa 0,0 l/m 0 min 0 min 1,9 UV-I 246 W/m 2,6 km/h (1 Bft)
14.06.2013 13:28 17,7 C 21,2 C 68 % 1020,0 hPa 0,0 l/m 0 min 0 min 2,1 UV-I 294 W/m 10,3 km/h (2 Bft)
14.06.2013 13:30 17,5 C 20,7 C 71 % 1020,0 hPa 0,0 l/m 0 min 0 min 2,3 UV-I 271 W/m 7,7 km/h (2 Bft)
14.06.2013 13:32 17,4 C 20,7 C 70 % 1020,0 hPa 0,0 l/m 0 min 0 min 2,4 UV-I 278 W/m 12,9 km/h (3 Bft)
14.06.2013 13:34 17,5 C 21,2 C 70 % 1020,0 hPa 0,0 l/m 2 min 0 min 2,2 UV-I 893 W/m 7,7 km/h (2 Bft)
14.06.2013 13:36 17,4 C 20,1 C 69 % 1019,9 hPa 0,0 l/m 0 min 0 min 2,4 UV-I 220 W/m 10,3 km/h (2 Bft)
14.06.2013 13:38 17,4 C 21,8 C 68 % 1019,8 hPa 0,0 l/m 2 min 0 min 2,5 UV-I 946 W/m 7,7 km/h (2 Bft)
14.06.2013 13:40 17,6 C 23,4 C 69 % 1019,7 hPa 0,0 l/m 2 min 0 min 2,6 UV-I 976 W/m 10,3 km/h (2 Bft)
14.06.2013 13:42 17,9 C 23,4 C 68 % 1019,7 hPa 0,0 l/m 2 min 0 min 2,7 UV-I 919 W/m 7,7 km/h (2 Bft)
14.06.2013 13:44 18,2 C 22,3 C 67 % 1019,7 hPa 0,0 l/m 2 min 0 min 3,0 UV-I 881 W/m 10,3 km/h (2 Bft)
14.06.2013 13:46 18,5 C 21,8 C 66 % 1019,6 hPa 0,0 l/m 2 min 0 min 3,5 UV-I 954 W/m 7,7 km/h (2 Bft)
14.06.2013 13:48 18,7 C 21,8 C 66 % 1019,7 hPa 0,0 l/m 0 min 0 min 2,6 UV-I 255 W/m 2,6 km/h (1 Bft)
14.06.2013 13:50 18,7 C 21,2 C 64 % 1019,7 hPa 0,0 l/m 0 min 0 min 4,4 UV-I 255 W/m 5,1 km/h (1 Bft)
14.06.2013 13:52 18,7 C 20,7 C 64 % 1019,7 hPa 0,0 l/m 2 min 0 min 5,1 UV-I 1004 W/m 12,9 km/h (3 Bft)
14.06.2013 13:54 18,8 C 20,7 C 64 % 1019,7 hPa 0,0 l/m 2 min 0 min 5,4 UV-I 1004 W/m 12,9 km/h (3 Bft)
14.06.2013 13:56 18,8 C 20,7 C 60 % 1019,7 hPa 0,0 l/m 2 min 0 min 2,9 UV-I 895 W/m 12,9 km/h (3 Bft)
14.06.2013 13:58 18,5 C 20,1 C 62 % 1019,6 hPa 0,0 l/m 0 min 0 min 2,8 UV-I 362 W/m 12,9 km/h (3 Bft)
14.06.2013 14:00 18,3 C 20,1 C 62 % 1019,6 hPa 0,0 l/m 0 min 0 min 5,4 UV-I 369 W/m 5,1 km/h (1 Bft)
14.06.2013 14:02 18,3 C 20,1 C 64 % 1019,6 hPa 0,0 l/m 0 min 0 min 2,5 UV-I 369 W/m 12,9 km/h (3 Bft)
14.06.2013 14:04 18,1 C 19,6 C 65 % 1019,6 hPa 0,0 l/m 2 min 0 min 5,4 UV-I 951 W/m 12,9 km/h (3 Bft)
14.06.2013 14:06 18,3 C 20,1 C 68 % 1019,4 hPa 0,0 l/m 2 min 0 min 5,3 UV-I 933 W/m 2,6 km/h (1 Bft)
14.06.2013 14:08 18,8 C 20,7 C 66 % 1019,4 hPa 0,0 l/m 2 min 0 min 5,1 UV-I 895 W/m 10,3 km/h (2 Bft)
14.06.2013 14:10 18,8 C 20,1 C 63 % 1019,4 hPa 0,0 l/m 2 min 0 min 4,9 UV-I 800 W/m 10,3 km/h (2 Bft)
14.06.2013 14:12 18,7 C 20,7 C 63 % 1019,4 hPa 0,0 l/m 2 min 0 min 3,3 UV-I 872 W/m 7,7 km/h (2 Bft)
14.06.2013 14:14 18,6 C 20,1 C 62 % 1019,5 hPa 0,0 l/m 0 min 0 min 5,0 UV-I 309 W/m 0,0 km/h (0 Bft)
14.06.2013 14:16 18,3 C 20,1 C 62 % 1019,5 hPa 0,0 l/m 0 min 0 min 3,1 UV-I 309 W/m 7,7 km/h (2 Bft)
14.06.2013 14:18 18,3 C 20,1 C 64 % 1019,6 hPa 0,0 l/m 0 min 0 min 2,2 UV-I 315 W/m 7,7 km/h (2 Bft)
14.06.2013 14:20 18,2 C 19,6 C 67 % 1019,6 hPa 0,0 l/m 0 min 0 min 2,3 UV-I 332 W/m 7,7 km/h (2 Bft)
14.06.2013 14:22 18,3 C 20,1 C 66 % 1019,5 hPa 0,0 l/m 2 min 0 min 4,8 UV-I 1053 W/m 10,3 km/h (2 Bft)
14.06.2013 14:24 18,6 C 20,1 C 67 % 1019,5 hPa 0,0 l/m 0 min 0 min 2,2 UV-I 346 W/m 7,7 km/h (2 Bft)
14.06.2013 14:26 18,6 C 20,1 C 62 % 1019,5 hPa 0,0 l/m 0 min 0 min 3,3 UV-I 387 W/m 12,9 km/h (3 Bft)
14.06.2013 14:28 18,5 C 20,1 C 63 % 1019,5 hPa 0,0 l/m 0 min 0 min 2,7 UV-I 434 W/m 12,9 km/h (3 Bft)
14.06.2013 14:30 18,3 C 19,6 C 64 % 1019,5 hPa 0,0 l/m 2 min 0 min 2,6 UV-I 499 W/m 10,3 km/h (2 Bft)
14.06.2013 14:32 18,3 C 20,1 C 65 % 1019,5 hPa 0,0 l/m 0 min 0 min 2,3 UV-I 397 W/m 2,6 km/h (1 Bft)
14.06.2013 14:34 18,2 C 19,6 C 62 % 1019,4 hPa 0,0 l/m 0 min 0 min 2,2 UV-I 366 W/m 7,7 km/h (2 Bft)
14.06.2013 14:36 18,1 C 19,0 C 63 % 1019,5 hPa 0,0 l/m 0 min 0 min 1,9 UV-I 346 W/m 10,3 km/h (2 Bft)
14.06.2013 14:38 17,9 C 19,0 C 65 % 1019,4 hPa 0,0 l/m 0 min 0 min 1,8 UV-I 343 W/m 10,3 km/h (2 Bft)
14.06.2013 14:40 17,9 C 19,0 C 63 % 1019,5 hPa 0,0 l/m 0 min 0 min 1,8 UV-I 366 W/m 7,7 km/h (2 Bft)
14.06.2013 14:42 17,8 C 18,4 C 64 % 1019,5 hPa 0,0 l/m 0 min 0 min 1,9 UV-I 373 W/m 10,3 km/h (2 Bft)
14.06.2013 14:44 17,8 C 19,0 C 64 % 1019,4 hPa 0,0 l/m 0 min 0 min 1,7 UV-I 357 W/m 0,0 km/h (0 Bft)
14.06.2013 14:46 17,8 C 18,4 C 63 % 1019,5 hPa 0,0 l/m 0 min 0 min 1,5 UV-I 309 W/m 7,7 km/h (2 Bft)
14.06.2013 14:48 17,8 C 18,4 C 66 % 1019,5 hPa 0,0 l/m 0 min 0 min 1,4 UV-I 294 W/m 5,1 km/h (1 Bft)
14.06.2013 14:50 17,7 C 18,4 C 65 % 1019,5 hPa 0,0 l/m 0 min 0 min 1,3 UV-I 288 W/m 5,1 km/h (1 Bft)
14.06.2013 14:52 17,6 C 17,9 C 64 % 1019,5 hPa 0,0 l/m 0 min 0 min 1,2 UV-I 278 W/m 12,9 km/h (3 Bft)
14.06.2013 14:54 17,5 C 17,9 C 64 % 1019,5 hPa 0,0 l/m 0 min 0 min 1,1 UV-I 274 W/m 2,6 km/h (1 Bft)
14.06.2013 14:56 17,4 C 17,9 C 64 % 1019,5 hPa 0,0 l/m 0 min 0 min 1,1 UV-I 274 W/m 0,0 km/h (0 Bft)
14.06.2013 14:58 17,4 C 17,9 C 64 % 1019,6 hPa 0,0 l/m 0 min 0 min 1,1 UV-I 278 W/m 0,0 km/h (0 Bft)
14.06.2013 15:00 17,4 C 17,9 C 64 % 1019,5 hPa 0,0 l/m 0 min 0 min 1,2 UV-I 279 W/m 0,0 km/h (0 Bft)
14.06.2013 15:02 17,5 C 17,9 C 63 % 1019,5 hPa 0,0 l/m 0 min 0 min 1,2 UV-I 283 W/m 2,6 km/h (1 Bft)
14.06.2013 15:04 17,4 C 17,9 C 63 % 1019,5 hPa 0,0 l/m 0 min 0 min 1,1 UV-I 272 W/m 2,6 km/h (1 Bft)
14.06.2013 15:06 17,4 C 17,9 C 64 % 1019,5 hPa 0,0 l/m 0 min 0 min 1,0 UV-I 265 W/m 0,0 km/h (0 Bft)
14.06.2013 15:08 17,4 C 17,9 C 65 % 1019,5 hPa 0,0 l/m 0 min 0 min 1,0 UV-I 241 W/m 0,0 km/h (0 Bft)
14.06.2013 15:10 17,5 C 17,9 C 65 % 1019,6 hPa 0,0 l/m 0 min 0 min 0,9 UV-I 234 W/m 7,7 km/h (2 Bft)
14.06.2013 15:12 17,4 C 17,9 C 64 % 1019,5 hPa 0,0 l/m 0 min 0 min 0,8 UV-I 229 W/m 0,0 km/h (0 Bft)
14.06.2013 15:14 17,4 C 17,9 C 65 % 1019,6 hPa 0,0 l/m 0 min 0 min 0,8 UV-I 218 W/m 0,0 km/h (0 Bft)
14.06.2013 15:16 17,3 C 17,3 C 64 % 1019,6 hPa 0,0 l/m 0 min 0 min 0,7 UV-I 211 W/m 7,7 km/h (2 Bft)
14.06.2013 15:18 17,3 C 17,3 C 65 % 1019,6 hPa 0,0 l/m 0 min 0 min 0,7 UV-I 202 W/m 7,7 km/h (2 Bft)
14.06.2013 15:20 17,3 C 17,3 C 66 % 1019,7 hPa 0,0 l/m 0 min 0 min 0,6 UV-I 199 W/m 0,0 km/h (0 Bft)
14.06.2013 15:22 17,3 C 17,3 C 67 % 1019,6 hPa 0,0 l/m 0 min 0 min 0,6 UV-I 200 W/m 2,6 km/h (1 Bft)
14.06.2013 15:24 17,3 C 17,3 C 67 % 1019,6 hPa 0,0 l/m 0 min 0 min 0,7 UV-I 202 W/m 0,0 km/h (0 Bft)
14.06.2013 15:26 17,3 C 17,3 C 67 % 1019,6 hPa 0,0 l/m 0 min 0 min 0,6 UV-I 193 W/m 0,0 km/h (0 Bft)
14.06.2013 15:28 17,3 C 17,3 C 67 % 1019,6 hPa 0,0 l/m 0 min 0 min 0,5 UV-I 183 W/m 2,6 km/h (1 Bft)
14.06.2013 15:30 17,3 C 17,3 C 68 % 1019,5 hPa 0,0 l/m 0 min 0 min 0,5 UV-I 179 W/m 0,0 km/h (0 Bft)
14.06.2013 15:32 17,2 C 17,3 C 66 % 1019,5 hPa 0,0 l/m 0 min 0 min 0,5 UV-I 188 W/m 0,0 km/h (0 Bft)
14.06.2013 15:34 17,2 C 17,3 C 66 % 1019,5 hPa 0,0 l/m 0 min 0 min 0,6 UV-I 199 W/m 0,0 km/h (0 Bft)
14.06.2013 15:36 17,2 C 17,3 C 65 % 1019,5 hPa 0,0 l/m 0 min 0 min 0,7 UV-I 211 W/m 2,6 km/h (1 Bft)
14.06.2013 15:38 17,1 C 17,3 C 65 % 1019,5 hPa 0,0 l/m 0 min 0 min 0,7 UV-I 220 W/m 2,6 km/h (1 Bft)
14.06.2013 15:40 17,1 C 17,3 C 65 % 1019,5 hPa 0,0 l/m 0 min 0 min 0,7 UV-I 218 W/m 0,0 km/h (0 Bft)
14.06.2013 15:42 17,1 C 17,3 C 65 % 1019,4 hPa 0,0 l/m 0 min 0 min 0,7 UV-I 213 W/m 0,0 km/h (0 Bft)
14.06.2013 15:44 17,0 C 17,3 C 64 % 1019,4 hPa 0,0 l/m 0 min 0 min 0,6 UV-I 207 W/m 7,7 km/h (2 Bft)
14.06.2013 15:46 17,1 C 17,3 C 66 % 1019,4 hPa 0,0 l/m 0 min 0 min 0,6 UV-I 207 W/m 0,0 km/h (0 Bft)
14.06.2013 15:48 17,1 C 17,3 C 66 % 1019,4 hPa 0,0 l/m 0 min 0 min 0,6 UV-I 204 W/m 7,7 km/h (2 Bft)
14.06.2013 15:50 17,1 C 17,3 C 67 % 1019,3 hPa 0,0 l/m 0 min 0 min 0,6 UV-I 193 W/m 0,0 km/h (0 Bft)
14.06.2013 15:52 17,2 C 17,3 C 67 % 1019,3 hPa 0,0 l/m 0 min 0 min 0,5 UV-I 192 W/m 0,0 km/h (0 Bft)
14.06.2013 15:54 17,2 C 17,3 C 66 % 1019,3 hPa 0,0 l/m 0 min 0 min 0,5 UV-I 199 W/m 0,0 km/h (0 Bft)
14.06.2013 15:56 17,2 C 17,3 C 66 % 1019,3 hPa 0,0 l/m 0 min 0 min 0,6 UV-I 213 W/m 0,0 km/h (0 Bft)
14.06.2013 15:58 17,2 C 17,3 C 67 % 1019,3 hPa 0,0 l/m 0 min 0 min 0,6 UV-I 218 W/m 0,0 km/h (0 Bft)
14.06.2013 16:00 17,2 C 17,3 C 67 % 1019,2 hPa 0,0 l/m 0 min 0 min 0,7 UV-I 230 W/m 2,6 km/h (1 Bft)
14.06.2013 16:02 17,2 C 17,3 C 66 % 1019,1 hPa 0,0 l/m 0 min 0 min 0,9 UV-I 264 W/m 0,0 km/h (0 Bft)
14.06.2013 16:04 17,2 C 17,3 C 67 % 1019,0 hPa 0,0 l/m 0 min 0 min 1,0 UV-I 292 W/m 0,0 km/h (0 Bft)
14.06.2013 16:06 17,2 C 17,9 C 67 % 1019,0 hPa 0,0 l/m 0 min 0 min 1,2 UV-I 323 W/m 0,0 km/h (0 Bft)
14.06.2013 16:08 17,3 C 17,9 C 66 % 1019,0 hPa 0,0 l/m 0 min 0 min 1,3 UV-I 350 W/m 5,1 km/h (1 Bft)
14.06.2013 16:10 17,4 C 18,4 C 67 % 1018,9 hPa 0,0 l/m 0 min 0 min 1,3 UV-I 353 W/m 0,0 km/h (0 Bft)
14.06.2013 16:12 17,5 C 18,4 C 65 % 1018,9 hPa 0,0 l/m 0 min 0 min 1,4 UV-I 357 W/m 0,0 km/h (0 Bft)
14.06.2013 16:14 17,4 C 17,9 C 64 % 1018,9 hPa 0,0 l/m 0 min 0 min 1,4 UV-I 352 W/m 12,9 km/h (3 Bft)
14.06.2013 16:16 17,5 C 18,4 C 66 % 1018,8 hPa 0,0 l/m 0 min 0 min 1,3 UV-I 332 W/m 2,6 km/h (1 Bft)
14.06.2013 16:18 17,6 C 18,4 C 65 % 1018,8 hPa 0,0 l/m 0 min 0 min 1,2 UV-I 302 W/m 5,1 km/h (1 Bft)
14.06.2013 16:20 17,6 C 17,9 C 64 % 1018,8 hPa 0,0 l/m 0 min 0 min 1,2 UV-I 302 W/m 2,6 km/h (1 Bft)
14.06.2013 16:22 17,7 C 18,4 C 64 % 1018,8 hPa 0,0 l/m 0 min 0 min 1,4 UV-I 348 W/m 0,0 km/h (0 Bft)
14.06.2013 16:24 17,7 C 18,4 C 62 % 1018,8 hPa 0,0 l/m 0 min 0 min 1,5 UV-I 396 W/m 5,1 km/h (1 Bft)
14.06.2013 16:26 17,7 C 18,4 C 63 % 1018,7 hPa 0,0 l/m 2 min 0 min 1,6 UV-I 396 W/m 0,0 km/h (0 Bft)
14.06.2013 16:28 17,7 C 19,0 C 64 % 1018,7 hPa 0,0 l/m 2 min 0 min 1,6 UV-I 408 W/m 0,0 km/h (0 Bft)
14.06.2013 16:30 17,9 C 19,0 C 65 % 1018,7 hPa 0,0 l/m 2 min 0 min 1,6 UV-I 424 W/m 0,0 km/h (0 Bft)
14.06.2013 16:32 17,9 C 19,0 C 61 % 1018,6 hPa 0,0 l/m 2 min 0 min 1,8 UV-I 455 W/m 12,9 km/h (3 Bft)
14.06.2013 16:34 17,8 C 19,0 C 61 % 1018,5 hPa 0,0 l/m 2 min 0 min 2,2 UV-I 559 W/m 7,7 km/h (2 Bft)
14.06.2013 16:36 17,9 C 19,0 C 61 % 1018,5 hPa 0,0 l/m 2 min 0 min 2,4 UV-I 636 W/m 0,0 km/h (0 Bft)
14.06.2013 16:38 18,1 C 19,6 C 62 % 1018,4 hPa 0,0 l/m 2 min 0 min 2,6 UV-I 687 W/m 0,0 km/h (0 Bft)
14.06.2013 16:40 18,2 C 20,1 C 60 % 1018,5 hPa 0,0 l/m 2 min 0 min 2,6 UV-I 701 W/m 2,6 km/h (1 Bft)
14.06.2013 16:42 18,3 C 20,1 C 60 % 1018,5 hPa 0,0 l/m 2 min 0 min 2,4 UV-I 599 W/m 0,0 km/h (0 Bft)
14.06.2013 16:44 18,2 C 19,6 C 60 % 1018,4 hPa 0,0 l/m 2 min 0 min 1,9 UV-I 531 W/m 2,6 km/h (1 Bft)
14.06.2013 16:46 18,1 C 19,6 C 61 % 1018,4 hPa 0,0 l/m 2 min 0 min 1,7 UV-I 473 W/m 7,7 km/h (2 Bft)
14.06.2013 16:48 17,9 C 19,0 C 60 % 1018,3 hPa 0,0 l/m 2 min 0 min 1,8 UV-I 468 W/m 10,3 km/h (2 Bft)
14.06.2013 16:50 17,9 C 19,6 C 61 % 1018,2 hPa 0,0 l/m 2 min 0 min 2,2 UV-I 621 W/m 7,7 km/h (2 Bft)
14.06.2013 16:52 18,0 C 19,6 C 62 % 1018,1 hPa 0,0 l/m 2 min 0 min 2,5 UV-I 691 W/m 2,6 km/h (1 Bft)
14.06.2013 16:54 18,3 C 19,6 C 60 % 1018,0 hPa 0,0 l/m 2 min 0 min 2,7 UV-I 763 W/m 0,0 km/h (0 Bft)
14.06.2013 16:56 18,8 C 20,1 C 60 % 1017,9 hPa 0,0 l/m 2 min 0 min 2,6 UV-I 745 W/m 2,6 km/h (1 Bft)
14.06.2013 16:58 18,9 C 19,6 C 57 % 1017,9 hPa 0,0 l/m 2 min 0 min 2,5 UV-I 715 W/m 0,0 km/h (0 Bft)
14.06.2013 17:00 19,0 C 19,6 C 59 % 1017,9 hPa 0,0 l/m 2 min 0 min 2,6 UV-I 715 W/m 2,6 km/h (1 Bft)
14.06.2013 17:02 19,2 C 19,6 C 58 % 1017,7 hPa 0,0 l/m 2 min 0 min 2,3 UV-I 649 W/m 5,1 km/h (1 Bft)
14.06.2013 17:04 19,4 C 19,6 C 58 % 1017,7 hPa 0,0 l/m 2 min 0 min 1,5 UV-I 378 W/m 7,7 km/h (2 Bft)
14.06.2013 17:06 19,3 C 19,6 C 57 % 1017,7 hPa 0,0 l/m 0 min 0 min 1,3 UV-I 330 W/m 0,0 km/h (0 Bft)
14.06.2013 17:08 19,2 C 19,0 C 59 % 1017,8 hPa 0,0 l/m 0 min 0 min 1,1 UV-I 246 W/m 5,1 km/h (1 Bft)
14.06.2013 17:10 18,9 C 19,0 C 58 % 1017,7 hPa 0,0 l/m 0 min 0 min 1,3 UV-I 315 W/m 2,6 km/h (1 Bft)
14.06.2013 17:12 18,7 C 19,0 C 59 % 1017,7 hPa 0,0 l/m 0 min 0 min 1,3 UV-I 294 W/m 0,0 km/h (0 Bft)
14.06.2013 17:14 18,4 C 18,4 C 60 % 1017,7 hPa 0,0 l/m 0 min 0 min 1,1 UV-I 318 W/m 2,6 km/h (1 Bft)
14.06.2013 17:16 18,4 C 18,4 C 61 % 1017,7 hPa 0,0 l/m 0 min 0 min 1,2 UV-I 334 W/m 0,0 km/h (0 Bft)
14.06.2013 17:18 18,4 C 19,0 C 60 % 1017,7 hPa 0,0 l/m 2 min 0 min 1,2 UV-I 376 W/m 0,0 km/h (0 Bft)
14.06.2013 17:20 18,4 C 19,0 C 61 % 1017,7 hPa 0,0 l/m 2 min 0 min 1,1 UV-I 364 W/m 0,0 km/h (0 Bft)
14.06.2013 17:22 18,5 C 19,0 C 61 % 1017,7 hPa 0,0 l/m 2 min 0 min 1,1 UV-I 345 W/m 0,0 km/h (0 Bft)
14.06.2013 17:24 18,5 C 19,0 C 62 % 1017,7 hPa 0,0 l/m 0 min 0 min 1,0 UV-I 327 W/m 0,0 km/h (0 Bft)
14.06.2013 17:26 18,5 C 19,0 C 60 % 1017,7 hPa 0,0 l/m 0 min 0 min 0,9 UV-I 302 W/m 0,0 km/h (0 Bft)
14.06.2013 17:28 18,6 C 19,0 C 60 % 1017,6 hPa 0,0 l/m 0 min 0 min 0,8 UV-I 288 W/m 2,6 km/h (1 Bft)
14.06.2013 17:30 18,6 C 19,0 C 61 % 1017,7 hPa 0,0 l/m 0 min 0 min 0,8 UV-I 285 W/m 0,0 km/h (0 Bft)
14.06.2013 17:32 18,2 C 19,0 C 58 % 1017,6 hPa 0,0 l/m 0 min 0 min 0,7 UV-I 276 W/m 0,0 km/h (0 Bft)
14.06.2013 17:34 18,1 C 19,0 C 63 % 1017,6 hPa 0,0 l/m 0 min 0 min 0,7 UV-I 260 W/m 0,0 km/h (0 Bft)
14.06.2013 17:36 18,1 C 19,0 C 61 % 1017,6 hPa 0,0 l/m 0 min 0 min 0,6 UV-I 239 W/m 0,0 km/h (0 Bft)
14.06.2013 17:38 18,0 C 18,4 C 63 % 1017,6 hPa 0,0 l/m 0 min 0 min 0,5 UV-I 227 W/m 0,0 km/h (0 Bft)
14.06.2013 17:40 18,1 C 18,4 C 64 % 1017,6 hPa 0,0 l/m 0 min 0 min 0,0 UV-I 220 W/m 0,0 km/h (0 Bft)
14.06.2013 17:42 18,1 C 18,4 C 62 % 1017,7 hPa 0,0 l/m 0 min 0 min 0,0 UV-I 206 W/m 2,6 km/h (1 Bft)
14.06.2013 17:44 18,1 C 18,4 C 63 % 1017,7 hPa 0,0 l/m 0 min 0 min 0,0 UV-I 193 W/m 0,0 km/h (0 Bft)
14.06.2013 17:46 18,1 C 17,9 C 63 % 1017,8 hPa 0,0 l/m 0 min 0 min 0,0 UV-I 186 W/m 0,0 km/h (0 Bft)
14.06.2013 17:48 18,1 C 17,9 C 63 % 1017,7 hPa 0,0 l/m 0 min 0 min 0,0 UV-I 169 W/m 0,0 km/h (0 Bft)
14.06.2013 17:50 18,1 C 17,9 C 63 % 1017,7 hPa 0,0 l/m 0 min 0 min 0,0 UV-I 156 W/m 2,6 km/h (1 Bft)
14.06.2013 17:52 18,1 C 17,9 C 62 % 1017,7 hPa 0,0 l/m 0 min 0 min 0,0 UV-I 148 W/m 0,0 km/h (0 Bft)
14.06.2013 17:54 18,0 C 17,9 C 64 % 1017,7 hPa 0,0 l/m 0 min 0 min 0,0 UV-I 153 W/m 0,0 km/h (0 Bft)
14.06.2013 17:56 17,9 C 17,9 C 61 % 1017,8 hPa 0,0 l/m 0 min 0 min 0,0 UV-I 167 W/m 0,0 km/h (0 Bft)
14.06.2013 17:58 17,9 C 17,9 C 64 % 1017,9 hPa 0,0 l/m 0 min 0 min 0,0 UV-I 186 W/m 0,0 km/h (0 Bft)
14.06.2013 18:00 17,9 C 17,9 C 62 % 1017,8 hPa 0,0 l/m 0 min 0 min 0,0 UV-I 216 W/m 2,6 km/h (1 Bft)
14.06.2013 18:02 17,9 C 17,9 C 64 % 1017,8 hPa 0,0 l/m 0 min 0 min 0,0 UV-I 234 W/m 0,0 km/h (0 Bft)
14.06.2013 18:04 17,9 C 17,9 C 62 % 1017,7 hPa 0,0 l/m 0 min 0 min 0,0 UV-I 244 W/m 5,1 km/h (1 Bft)
14.06.2013 18:06 17,9 C 17,9 C 62 % 1017,8 hPa 0,0 l/m 0 min 0 min 0,0 UV-I 255 W/m 0,0 km/h (0 Bft)
14.06.2013 18:08 17,9 C 17,9 C 64 % 1017,7 hPa 0,0 l/m 0 min 0 min 0,0 UV-I 262 W/m 0,0 km/h (0 Bft)
14.06.2013 18:10 18,0 C 18,4 C 63 % 1017,7 hPa 0,0 l/m 0 min 0 min 0,0 UV-I 250 W/m 5,1 km/h (1 Bft)
14.06.2013 18:12 18,1 C 18,4 C 63 % 1017,7 hPa 0,0 l/m 0 min 0 min 0,0 UV-I 236 W/m 0,0 km/h (0 Bft)
14.06.2013 18:14 18,2 C 18,4 C 64 % 1017,6 hPa 0,0 l/m 0 min 0 min 0,0 UV-I 218 W/m 2,6 km/h (1 Bft)
14.06.2013 18:16 18,2 C 18,4 C 64 % 1017,6 hPa 0,0 l/m 0 min 0 min 0,0 UV-I 202 W/m 0,0 km/h (0 Bft)
14.06.2013 18:18 18,3 C 18,4 C 64 % 1017,6 hPa 0,0 l/m 0 min 0 min 0,0 UV-I 200 W/m 0,0 km/h (0 Bft)
14.06.2013 18:20 18,3 C 18,4 C 64 % 1017,5 hPa 0,0 l/m 0 min 0 min 0,0 UV-I 202 W/m 0,0 km/h (0 Bft)
14.06.2013 18:22 18,3 C 18,4 C 62 % 1017,5 hPa 0,0 l/m 0 min 0 min 0,0 UV-I 209 W/m 0,0 km/h (0 Bft)
14.06.2013 18:24 18,2 C 17,9 C 62 % 1017,5 hPa 0,0 l/m 0 min 0 min 0,0 UV-I 213 W/m 0,0 km/h (0 Bft)
14.06.2013 18:26 18,1 C 17,9 C 62 % 1017,3 hPa 0,0 l/m 0 min 0 min 0,0 UV-I 236 W/m 2,6 km/h (1 Bft)
14.06.2013 18:28 18,2 C 18,4 C 64 % 1017,3 hPa 0,0 l/m 2 min 0 min 0,0 UV-I 290 W/m 2,6 km/h (1 Bft)
14.06.2013 18:30 18,2 C 18,4 C 63 % 1017,3 hPa 0,0 l/m 2 min 0 min 0,0 UV-I 285 W/m 0,0 km/h (0 Bft)
14.06.2013 18:32 18,2 C 18,4 C 63 % 1017,3 hPa 0,0 l/m 2 min 0 min 0,0 UV-I 265 W/m 0,0 km/h (0 Bft)
14.06.2013 18:34 18,2 C 18,4 C 63 % 1017,2 hPa 0,0 l/m 2 min 0 min 0,0 UV-I 251 W/m 0,0 km/h (0 Bft)
14.06.2013 18:36 18,2 C 18,4 C 61 % 1017,2 hPa 0,0 l/m 2 min 0 min 0,0 UV-I 246 W/m 0,0 km/h (0 Bft)
14.06.2013 18:38 18,2 C 18,4 C 63 % 1017,2 hPa 0,0 l/m 2 min 0 min 0,0 UV-I 257 W/m 0,0 km/h (0 Bft)
14.06.2013 18:40 18,3 C 18,4 C 63 % 1017,2 hPa 0,0 l/m 2 min 0 min 0,0 UV-I 257 W/m 0,0 km/h (0 Bft)
14.06.2013 18:42 18,4 C 18,4 C 62 % 1017,2 hPa 0,0 l/m 2 min 0 min 0,0 UV-I 248 W/m 0,0 km/h (0 Bft)
14.06.2013 18:44 18,5 C 19,0 C 63 % 1017,2 hPa 0,0 l/m 2 min 0 min 0,0 UV-I 274 W/m 7,7 km/h (2 Bft)
14.06.2013 18:46 18,6 C 19,0 C 61 % 1017,2 hPa 0,0 l/m 2 min 0 min 0,0 UV-I 262 W/m 12,9 km/h (3 Bft)
14.06.2013 18:48 18,6 C 19,0 C 62 % 1017,1 hPa 0,0 l/m 2 min 0 min 0,0 UV-I 246 W/m 10,3 km/h (2 Bft)
14.06.2013 18:50 18,6 C 18,4 C 63 % 1017,1 hPa 0,0 l/m 0 min 0 min 0,0 UV-I 204 W/m 5,1 km/h (1 Bft)
14.06.2013 18:52 18,7 C 18,4 C 62 % 1017,0 hPa 0,0 l/m 0 min 0 min 0,0 UV-I 171 W/m 12,9 km/h (3 Bft)
14.06.2013 18:54 18,6 C 18,4 C 62 % 1016,9 hPa 0,0 l/m 0 min 0 min 0,0 UV-I 149 W/m 7,7 km/h (2 Bft)
14.06.2013 18:56 18,5 C 17,9 C 62 % 1016,9 hPa 0,0 l/m 0 min 0 min 0,0 UV-I 137 W/m 7,7 km/h (2 Bft)
14.06.2013 18:58 18,4 C 17,9 C 62 % 1016,8 hPa 0,0 l/m 0 min 0 min 0,0 UV-I 130 W/m 10,3 km/h (2 Bft)
14.06.2013 19:00 18,4 C 17,9 C 62 % 1016,9 hPa 0,0 l/m 0 min 0 min 0,0 UV-I 127 W/m 2,6 km/h (1 Bft)
14.06.2013 19:02 18,3 C 17,9 C 63 % 1016,9 hPa 0,0 l/m 0 min 0 min 0,0 UV-I 130 W/m 0,0 km/h (0 Bft)
14.06.2013 19:04 18,2 C 17,9 C 60 % 1016,9 hPa 0,0 l/m 0 min 0 min 0,0 UV-I 127 W/m 0,0 km/h (0 Bft)
14.06.2013 19:06 18,0 C 17,3 C 62 % 1016,9 hPa 0,0 l/m 0 min 0 min 0,0 UV-I 128 W/m 0,0 km/h (0 Bft)
14.06.2013 19:08 18,0 C 17,3 C 62 % 1016,9 hPa 0,0 l/m 0 min 0 min 0,0 UV-I 137 W/m 0,0 km/h (0 Bft)
14.06.2013 19:10 18,0 C 17,3 C 62 % 1016,9 hPa 0,0 l/m 0 min 0 min 0,0 UV-I 121 W/m 12,9 km/h (3 Bft)
14.06.2013 19:12 18,0 C 17,3 C 63 % 1016,9 hPa 0,0 l/m 0 min 0 min 0,0 UV-I 116 W/m 12,9 km/h (3 Bft)
14.06.2013 19:14 18,0 C 17,3 C 63 % 1016,9 hPa 0,0 l/m 0 min 0 min 0,0 UV-I 107 W/m 5,1 km/h (1 Bft)
14.06.2013 19:16 18,0 C 17,3 C 63 % 1016,9 hPa 0,0 l/m 0 min 0 min 0,0 UV-I 100 W/m 7,7 km/h (2 Bft)
14.06.2013 19:18 17,9 C 17,3 C 63 % 1017,0 hPa 0,0 l/m 0 min 0 min 0,0 UV-I 93 W/m 0,0 km/h (0 Bft)
14.06.2013 19:20 17,9 C 17,3 C 64 % 1017,0 hPa 0,0 l/m 0 min 0 min 0,0 UV-I 90 W/m 2,6 km/h (1 Bft)
14.06.2013 19:22 17,9 C 17,3 C 64 % 1017,0 hPa 0,0 l/m 0 min 0 min 0,0 UV-I 83 W/m 7,7 km/h (2 Bft)
14.06.2013 19:24 17,8 C 16,8 C 65 % 1016,9 hPa 0,0 l/m 0 min 0 min 0,0 UV-I 79 W/m 0,0 km/h (0 Bft)
14.06.2013 19:26 17,8 C 16,8 C 65 % 1017,0 hPa 0,0 l/m 0 min 0 min 0,0 UV-I 77 W/m 0,0 km/h (0 Bft)
14.06.2013 19:28 17,7 C 16,8 C 65 % 1017,0 hPa 0,0 l/m 0 min 0 min 0,0 UV-I 77 W/m 2,6 km/h (1 Bft)
14.06.2013 19:30 17,7 C 16,8 C 64 % 1016,9 hPa 0,0 l/m 0 min 0 min 0,0 UV-I 77 W/m 7,7 km/h (2 Bft)
14.06.2013 19:32 17,6 C 16,8 C 65 % 1017,0 hPa 0,0 l/m 0 min 0 min 0,0 UV-I 81 W/m 5,1 km/h (1 Bft)
14.06.2013 19:34 17,6 C 16,8 C 65 % 1017,0 hPa 0,0 l/m 0 min 0 min 0,0 UV-I 84 W/m 0,0 km/h (0 Bft)
14.06.2013 19:36 17,5 C 16,8 C 66 % 1016,9 hPa 0,0 l/m 0 min 0 min 0,0 UV-I 86 W/m 2,6 km/h (1 Bft)
14.06.2013 19:38 17,5 C 16,8 C 66 % 1017,0 hPa 0,0 l/m 0 min 0 min 0,0 UV-I 88 W/m 0,0 km/h (0 Bft)
14.06.2013 19:40 17,5 C 16,8 C 67 % 1017,0 hPa 0,0 l/m 0 min 0 min 0,0 UV-I 90 W/m 0,0 km/h (0 Bft)
14.06.2013 19:42 17,4 C 16,8 C 66 % 1017,0 hPa 0,0 l/m 0 min 0 min 0,0 UV-I 90 W/m 0,0 km/h (0 Bft)
14.06.2013 19:44 17,4 C 16,8 C 67 % 1017,1 hPa 0,0 l/m 0 min 0 min 0,0 UV-I 91 W/m 0,0 km/h (0 Bft)
14.06.2013 19:46 17,4 C 16,8 C 67 % 1017,0 hPa 0,0 l/m 0 min 0 min 0,0 UV-I 93 W/m 2,6 km/h (1 Bft)
14.06.2013 19:48 17,4 C 16,8 C 67 % 1017,0 hPa 0,0 l/m 0 min 0 min 0,0 UV-I 93 W/m 0,0 km/h (0 Bft)
14.06.2013 19:50 17,4 C 16,8 C 67 % 1017,0 hPa 0,0 l/m 0 min 0 min 0,0 UV-I 91 W/m 0,0 km/h (0 Bft)
14.06.2013 19:52 17,5 C 16,8 C 67 % 1017,0 hPa 0,0 l/m 0 min 0 min 0,0 UV-I 90 W/m 0,0 km/h (0 Bft)
14.06.2013 19:54 17,5 C 16,8 C 68 % 1017,0 hPa 0,0 l/m 0 min 0 min 0,0 UV-I 88 W/m 0,0 km/h (0 Bft)
14.06.2013 19:56 17,4 C 16,8 C 67 % 1017,0 hPa 0,0 l/m 0 min 0 min 0,0 UV-I 84 W/m 0,0 km/h (0 Bft)
14.06.2013 19:58 17,4 C 16,8 C 68 % 1017,0 hPa 0,0 l/m 0 min 0 min 0,0 UV-I 83 W/m 0,0 km/h (0 Bft)
14.06.2013 20:00 17,4 C 16,8 C 68 % 1017,1 hPa 0,0 l/m 0 min 0 min 0,0 UV-I 81 W/m 0,0 km/h (0 Bft)
14.06.2013 20:02 17,4 C 16,8 C 68 % 1017,1 hPa 0,0 l/m 0 min 0 min 0,0 UV-I 79 W/m 0,0 km/h (0 Bft)
14.06.2013 20:04 17,4 C 16,8 C 69 % 1017,1 hPa 0,0 l/m 0 min 0 min 0,0 UV-I 77 W/m 0,0 km/h (0 Bft)
14.06.2013 20:06 17,3 C 16,8 C 68 % 1017,1 hPa 0,0 l/m 0 min 0 min 0,0 UV-I 77 W/m 0,0 km/h (0 Bft)
14.06.2013 20:08 17,3 C 16,8 C 68 % 1017,0 hPa 0,0 l/m 0 min 0 min 0,0 UV-I 76 W/m 0,0 km/h (0 Bft)
14.06.2013 20:10 17,3 C 16,8 C 68 % 1017,1 hPa 0,0 l/m 0 min 0 min 0,0 UV-I 74 W/m 0,0 km/h (0 Bft)
14.06.2013 20:12 17,3 C 16,8 C 70 % 1017,2 hPa 0,0 l/m 0 min 0 min 0,0 UV-I 72 W/m 0,0 km/h (0 Bft)
14.06.2013 20:14 17,3 C 16,2 C 69 % 1017,1 hPa 0,0 l/m 0 min 0 min 0,0 UV-I 69 W/m 0,0 km/h (0 Bft)
14.06.2013 20:16 17,3 C 16,2 C 68 % 1017,1 hPa 0,0 l/m 0 min 0 min 0,0 UV-I 69 W/m 0,0 km/h (0 Bft)
14.06.2013 20:18 17,3 C 16,2 C 70 % 1017,1 hPa 0,0 l/m 0 min 0 min 0,0 UV-I 67 W/m 0,0 km/h (0 Bft)
14.06.2013 20:20 17,3 C 16,2 C 68 % 1017,0 hPa 0,0 l/m 0 min 0 min 0,0 UV-I 65 W/m 0,0 km/h (0 Bft)
14.06.2013 20:22 17,3 C 16,2 C 69 % 1017,1 hPa 0,0 l/m 0 min 0 min 0,0 UV-I 65 W/m 0,0 km/h (0 Bft)
14.06.2013 20:24 17,2 C 16,2 C 69 % 1017,1 hPa 0,0 l/m 0 min 0 min 0,0 UV-I 65 W/m 0,0 km/h (0 Bft)
14.06.2013 20:26 17,2 C 16,2 C 70 % 1017,1 hPa 0,0 l/m 0 min 0 min 0,0 UV-I 67 W/m 0,0 km/h (0 Bft)
14.06.2013 20:28 17,2 C 16,2 C 70 % 1017,1 hPa 0,0 l/m 0 min 0 min 0,0 UV-I 69 W/m 0,0 km/h (0 Bft)
14.06.2013 20:30 17,2 C 16,2 C 69 % 1017,1 hPa 0,0 l/m 0 min 0 min 0,0 UV-I 67 W/m 0,0 km/h (0 Bft)
14.06.2013 20:32 17,2 C 16,2 C 69 % 1017,1 hPa 0,0 l/m 0 min 0 min 0,0 UV-I 63 W/m 0,0 km/h (0 Bft)
14.06.2013 20:34 17,2 C 16,2 C 68 % 1017,2 hPa 0,0 l/m 0 min 0 min 0,0 UV-I 62 W/m 0,0 km/h (0 Bft)
14.06.2013 20:36 17,3 C 16,2 C 68 % 1017,1 hPa 0,0 l/m 0 min 0 min 0,0 UV-I 60 W/m 0,0 km/h (0 Bft)
14.06.2013 20:38 17,3 C 16,2 C 69 % 1017,1 hPa 0,0 l/m 0 min 0 min 0,0 UV-I 56 W/m 0,0 km/h (0 Bft)
14.06.2013 20:40 17,3 C 15,7 C 71 % 1017,1 hPa 0,0 l/m 0 min 0 min 0,0 UV-I 54 W/m 0,0 km/h (0 Bft)
14.06.2013 20:42 17,2 C 15,7 C 71 % 1017,1 hPa 0,0 l/m 0 min 0 min 0,0 UV-I 54 W/m 0,0 km/h (0 Bft)
14.06.2013 20:44 17,2 C 15,7 C 71 % 1017,1 hPa 0,0 l/m 0 min 0 min 0,0 UV-I 54 W/m 0,0 km/h (0 Bft)
14.06.2013 20:46 17,2 C 15,7 C 71 % 1017,1 hPa 0,0 l/m 0 min 0 min 0,0 UV-I 54 W/m 0,0 km/h (0 Bft)
14.06.2013 20:48 17,2 C 15,7 C 70 % 1017,2 hPa 0,0 l/m 0 min 0 min 0,0 UV-I 54 W/m 0,0 km/h (0 Bft)
14.06.2013 20:50 17,2 C 15,7 C 70 % 1017,1 hPa 0,0 l/m 0 min 0 min 0,0 UV-I 53 W/m 5,1 km/h (1 Bft)
14.06.2013 20:52 17,2 C 15,7 C 70 % 1017,1 hPa 0,0 l/m 0 min 0 min 0,0 UV-I 51 W/m 0,0 km/h (0 Bft)
14.06.2013 20:54 17,2 C 15,7 C 70 % 1017,1 hPa 0,0 l/m 0 min 0 min 0,0 UV-I 53 W/m 0,0 km/h (0 Bft)
14.06.2013 20:56 17,2 C 15,7 C 69 % 1017,1 hPa 0,0 l/m 0 min 0 min 0,0 UV-I 53 W/m 0,0 km/h (0 Bft)
14.06.2013 20:58 17,2 C 15,7 C 69 % 1017,0 hPa 0,0 l/m 0 min 0 min 0,0 UV-I 49 W/m 0,0 km/h (0 Bft)
14.06.2013 21:00 17,2 C 15,7 C 70 % 1017,1 hPa 0,0 l/m 0 min 0 min 0,0 UV-I 44 W/m 0,0 km/h (0 Bft)
14.06.2013 21:02 17,1 C 15,7 C 71 % 1017,0 hPa 0,0 l/m 0 min 0 min 0,0 UV-I 40 W/m 0,0 km/h (0 Bft)
14.06.2013 21:04 17,1 C 15,7 C 71 % 1017,0 hPa 0,0 l/m 0 min 0 min 0,0 UV-I 37 W/m 0,0 km/h (0 Bft)
14.06.2013 21:06 17,1 C 15,7 C 69 % 1017,0 hPa 0,0 l/m 0 min 0 min 0,0 UV-I 33 W/m 0,0 km/h (0 Bft)
14.06.2013 21:08 17,1 C 15,1 C 69 % 1017,0 hPa 0,0 l/m 0 min 0 min 0,0 UV-I 32 W/m 0,0 km/h (0 Bft)
14.06.2013 21:10 17,1 C 15,1 C 69 % 1017,1 hPa 0,0 l/m 0 min 0 min 0,0 UV-I 30 W/m 0,0 km/h (0 Bft)
14.06.2013 21:12 17,1 C 15,1 C 70 % 1017,0 hPa 0,0 l/m 0 min 0 min 0,0 UV-I 30 W/m 0,0 km/h (0 Bft)
14.06.2013 21:14 17,1 C 14,6 C 69 % 1016,9 hPa 0,0 l/m 0 min 0 min 0,0 UV-I 28 W/m 0,0 km/h (0 Bft)
14.06.2013 21:16 17,1 C 14,6 C 69 % 1016,9 hPa 0,0 l/m 0 min 0 min 0,0 UV-I 28 W/m 0,0 km/h (0 Bft)
14.06.2013 21:18 17,1 C 14,6 C 69 % 1016,9 hPa 0,0 l/m 0 min 0 min 0,0 UV-I 28 W/m 0,0 km/h (0 Bft)
14.06.2013 21:20 17,1 C 14,6 C 70 % 1016,9 hPa 0,0 l/m 0 min 0 min 0,0 UV-I 26 W/m 0,0 km/h (0 Bft)
14.06.2013 21:22 17,1 C 14,6 C 70 % 1016,9 hPa 0,0 l/m 0 min 0 min 0,0 UV-I 25 W/m 0,0 km/h (0 Bft)
14.06.2013 21:24 17,1 C 14,6 C 70 % 1016,9 hPa 0,0 l/m 0 min 0 min 0,0 UV-I 21 W/m 0,0 km/h (0 Bft)
14.06.2013 21:26 17,1 C 14,6 C 70 % 1016,9 hPa 0,0 l/m 0 min 0 min 0,0 UV-I 19 W/m 0,0 km/h (0 Bft)
14.06.2013 21:28 17,0 C 14,0 C 70 % 1016,8 hPa 0,0 l/m 0 min 0 min 0,0 UV-I 18 W/m 0,0 km/h (0 Bft)
14.06.2013 21:30 17,0 C 14,0 C 70 % 1016,8 hPa 0,0 l/m 0 min 0 min 0,0 UV-I 14 W/m 0,0 km/h (0 Bft)
14.06.2013 21:32 17,0 C 14,0 C 71 % 1016,8 hPa 0,0 l/m 0 min 0 min 0,0 UV-I 14 W/m 0,0 km/h (0 Bft)
14.06.2013 21:34 16,9 C 14,0 C 71 % 1016,8 hPa 0,0 l/m 0 min 0 min 0,0 UV-I 12 W/m 0,0 km/h (0 Bft)
14.06.2013 21:36 16,9 C 13,4 C 72 % 1016,8 hPa 0,0 l/m 0 min 0 min 0,0 UV-I 12 W/m 0,0 km/h (0 Bft)
14.06.2013 21:38 16,9 C 13,4 C 72 % 1016,7 hPa 0,0 l/m 0 min 0 min 0,0 UV-I 11 W/m 0,0 km/h (0 Bft)
14.06.2013 21:40 16,9 C 13,4 C 72 % 1016,7 hPa 0,0 l/m 0 min 0 min 0,0 UV-I 11 W/m 0,0 km/h (0 Bft)
14.06.2013 21:42 16,8 C 13,4 C 72 % 1016,6 hPa 0,0 l/m 0 min 0 min 0,0 UV-I 9 W/m 0,0 km/h (0 Bft)
14.06.2013 21:44 16,8 C 13,4 C 72 % 1016,6 hPa 0,0 l/m 0 min 0 min 0,0 UV-I 7 W/m 0,0 km/h (0 Bft)
14.06.2013 21:46 16,8 C 13,4 C 72 % 1016,6 hPa 0,0 l/m 0 min 0 min 0,0 UV-I 7 W/m 0,0 km/h (0 Bft)
14.06.2013 21:48 16,7 C 12,9 C 72 % 1016,7 hPa 0,0 l/m 0 min 0 min 0,0 UV-I 5 W/m 0,0 km/h (0 Bft)
14.06.2013 21:50 16,7 C 12,9 C 73 % 1016,7 hPa 0,0 l/m 0 min 0 min 0,0 UV-I 5 W/m 0,0 km/h (0 Bft)
14.06.2013 21:52 16,6 C 12,9 C 73 % 1016,6 hPa 0,0 l/m 0 min 0 min 0,0 UV-I 5 W/m 0,0 km/h (0 Bft)
14.06.2013 21:54 16,6 C 12,9 C 73 % 1016,6 hPa 0,0 l/m 0 min 0 min 0,0 UV-I 5 W/m 0,0 km/h (0 Bft)
14.06.2013 21:56 16,6 C 12,9 C 74 % 1016,6 hPa 0,0 l/m 0 min 0 min 0,0 UV-I 0 W/m 0,0 km/h (0 Bft)
14.06.2013 21:58 16,5 C 12,9 C 74 % 1016,6 hPa 0,0 l/m 0 min 0 min 0,0 UV-I 0 W/m 0,0 km/h (0 Bft)
14.06.2013 22:00 16,4 C 12,9 C 74 % 1016,5 hPa 0,0 l/m 0 min 0 min 0,0 UV-I 0 W/m 0,0 km/h (0 Bft)
14.06.2013 22:02 16,4 C 12,3 C 75 % 1016,6 hPa 0,0 l/m 0 min 0 min 0,0 UV-I 0 W/m 0,0 km/h (0 Bft)
14.06.2013 22:04 16,3 C 12,3 C 75 % 1016,6 hPa 0,0 l/m 0 min 0 min 0,0 UV-I 0 W/m 0,0 km/h (0 Bft)
14.06.2013 22:06 16,3 C 12,3 C 75 % 1016,6 hPa 0,0 l/m 0 min 0 min 0,0 UV-I 0 W/m 0,0 km/h (0 Bft)
14.06.2013 22:08 16,2 C 12,3 C 75 % 1016,5 hPa 0,0 l/m 0 min 0 min 0,0 UV-I 0 W/m 0,0 km/h (0 Bft)
14.06.2013 22:10 16,1 C 12,3 C 75 % 1016,6 hPa 0,0 l/m 0 min 0 min 0,0 UV-I 0 W/m 0,0 km/h (0 Bft)
14.06.2013 22:12 16,1 C 12,3 C 75 % 1016,5 hPa 0,0 l/m 0 min 0 min 0,0 UV-I 0 W/m 0,0 km/h (0 Bft)
14.06.2013 22:14 16,0 C 12,3 C 75 % 1016,5 hPa 0,0 l/m 0 min 0 min 0,0 UV-I 0 W/m 0,0 km/h (0 Bft)
14.06.2013 22:16 15,9 C 12,3 C 75 % 1016,5 hPa 0,0 l/m 0 min 0 min 0,0 UV-I 0 W/m 0,0 km/h (0 Bft)
14.06.2013 22:18 15,9 C 12,3 C 75 % 1016,6 hPa 0,0 l/m 0 min 0 min 0,0 UV-I 0 W/m 0,0 km/h (0 Bft)
14.06.2013 22:20 15,8 C 12,3 C 75 % 1016,6 hPa 0,0 l/m 0 min 0 min 0,0 UV-I 0 W/m 0,0 km/h (0 Bft)
14.06.2013 22:22 15,8 C 12,3 C 76 % 1016,6 hPa 0,0 l/m 0 min 0 min 0,0 UV-I 0 W/m 0,0 km/h (0 Bft)
14.06.2013 22:24 15,7 C 11,8 C 76 % 1016,6 hPa 0,0 l/m 0 min 0 min 0,0 UV-I 0 W/m 0,0 km/h (0 Bft)
14.06.2013 22:26 15,7 C 11,8 C 76 % 1016,5 hPa 0,0 l/m 0 min 0 min 0,0 UV-I 0 W/m 0,0 km/h (0 Bft)
14.06.2013 22:28 15,6 C 12,3 C 76 % 1016,5 hPa 0,0 l/m 0 min 0 min 0,0 UV-I 0 W/m 0,0 km/h (0 Bft)
14.06.2013 22:30 15,6 C 11,8 C 76 % 1016,5 hPa 0,0 l/m 0 min 0 min 0,0 UV-I 0 W/m 0,0 km/h (0 Bft)
14.06.2013 22:32 15,6 C 11,8 C 76 % 1016,4 hPa 0,0 l/m 0 min 0 min 0,0 UV-I 0 W/m 0,0 km/h (0 Bft)
14.06.2013 22:34 15,5 C 11,8 C 76 % 1016,4 hPa 0,0 l/m 0 min 0 min 0,0 UV-I 0 W/m 0,0 km/h (0 Bft)
14.06.2013 22:36 15,4 C 11,8 C 77 % 1016,4 hPa 0,0 l/m 0 min 0 min 0,0 UV-I 0 W/m 0,0 km/h (0 Bft)
14.06.2013 22:38 15,4 C 11,8 C 77 % 1016,4 hPa 0,0 l/m 0 min 0 min 0,0 UV-I 0 W/m 0,0 km/h (0 Bft)
14.06.2013 22:40 15,4 C 11,8 C 77 % 1016,3 hPa 0,0 l/m 0 min 0 min 0,0 UV-I 0 W/m 0,0 km/h (0 Bft)
14.06.2013 22:42 15,3 C 11,8 C 77 % 1016,4 hPa 0,0 l/m 0 min 0 min 0,0 UV-I 0 W/m 0,0 km/h (0 Bft)
14.06.2013 22:44 15,3 C 11,8 C 77 % 1016,4 hPa 0,0 l/m 0 min 0 min 0,0 UV-I 0 W/m 0,0 km/h (0 Bft)
14.06.2013 22:46 15,2 C 11,8 C 77 % 1016,3 hPa 0,0 l/m 0 min 0 min 0,0 UV-I 0 W/m 0,0 km/h (0 Bft)
14.06.2013 22:48 15,2 C 11,8 C 77 % 1016,3 hPa 0,0 l/m 0 min 0 min 0,0 UV-I 0 W/m 0,0 km/h (0 Bft)
14.06.2013 22:50 15,1 C 11,8 C 77 % 1016,3 hPa 0,0 l/m 0 min 0 min 0,0 UV-I 0 W/m 0,0 km/h (0 Bft)
14.06.2013 22:52 15,1 C 11,8 C 78 % 1016,3 hPa 0,0 l/m 0 min 0 min 0,0 UV-I 0 W/m 0,0 km/h (0 Bft)
14.06.2013 22:54 15,0 C 11,8 C 78 % 1016,3 hPa 0,0 l/m 0 min 0 min 0,0 UV-I 0 W/m 0,0 km/h (0 Bft)
14.06.2013 22:56 14,9 C 11,2 C 78 % 1016,2 hPa 0,0 l/m 0 min 0 min 0,0 UV-I 0 W/m 0,0 km/h (0 Bft)
14.06.2013 22:58 14,9 C 11,2 C 78 % 1016,2 hPa 0,0 l/m 0 min 0 min 0,0 UV-I 0 W/m 0,0 km/h (0 Bft)
14.06.2013 23:00 14,8 C 11,2 C 78 % 1016,1 hPa 0,0 l/m 0 min 0 min 0,0 UV-I 0 W/m 0,0 km/h (0 Bft)
14.06.2013 23:02 14,7 C 11,2 C 79 % 1016,1 hPa 0,0 l/m 0 min 0 min 0,0 UV-I 0 W/m 0,0 km/h (0 Bft)
14.06.2013 23:04 14,7 C 11,2 C 79 % 1016,1 hPa 0,0 l/m 0 min 0 min 0,0 UV-I 0 W/m 0,0 km/h (0 Bft)
14.06.2013 23:06 14,6 C 11,2 C 79 % 1016,1 hPa 0,0 l/m 0 min 0 min 0,0 UV-I 0 W/m 0,0 km/h (0 Bft)
14.06.2013 23:08 14,6 C 11,2 C 79 % 1016,1 hPa 0,0 l/m 0 min 0 min 0,0 UV-I 0 W/m 0,0 km/h (0 Bft)
14.06.2013 23:10 14,5 C 11,2 C 79 % 1016,1 hPa 0,0 l/m 0 min 0 min 0,0 UV-I 0 W/m 0,0 km/h (0 Bft)
14.06.2013 23:12 14,4 C 11,2 C 80 % 1016,1 hPa 0,0 l/m 0 min 0 min 0,0 UV-I 0 W/m 0,0 km/h (0 Bft)
14.06.2013 23:14 14,3 C 11,2 C 80 % 1016,1 hPa 0,0 l/m 0 min 0 min 0,0 UV-I 0 W/m 0,0 km/h (0 Bft)
14.06.2013 23:16 14,3 C 11,2 C 80 % 1016,1 hPa 0,0 l/m 0 min 0 min 0,0 UV-I 0 W/m 0,0 km/h (0 Bft)
14.06.2013 23:18 14,2 C 10,7 C 80 % 1016,1 hPa 0,0 l/m 0 min 0 min 0,0 UV-I 0 W/m 0,0 km/h (0 Bft)
14.06.2013 23:20 14,2 C 10,7 C 80 % 1016,0 hPa 0,0 l/m 0 min 0 min 0,0 UV-I 0 W/m 0,0 km/h (0 Bft)
14.06.2013 23:22 14,1 C 10,7 C 80 % 1016,0 hPa 0,0 l/m 0 min 0 min 0,0 UV-I 0 W/m 0,0 km/h (0 Bft)
14.06.2013 23:24 14,0 C 10,7 C 80 % 1016,0 hPa 0,0 l/m 0 min 0 min 0,0 UV-I 0 W/m 0,0 km/h (0 Bft)
14.06.2013 23:26 14,0 C 10,7 C 80 % 1016,0 hPa 0,0 l/m 0 min 0 min 0,0 UV-I 0 W/m 0,0 km/h (0 Bft)
14.06.2013 23:28 14,0 C 10,7 C 80 % 1016,1 hPa 0,0 l/m 0 min 0 min 0,0 UV-I 0 W/m 0,0 km/h (0 Bft)
14.06.2013 23:30 14,0 C 10,7 C 81 % 1016,0 hPa 0,0 l/m 0 min 0 min 0,0 UV-I 0 W/m 0,0 km/h (0 Bft)
14.06.2013 23:32 13,9 C 10,7 C 81 % 1016,0 hPa 0,0 l/m 0 min 0 min 0,0 UV-I 0 W/m 0,0 km/h (0 Bft)
14.06.2013 23:34 13,8 C 10,7 C 81 % 1016,0 hPa 0,0 l/m 0 min 0 min 0,0 UV-I 0 W/m 0,0 km/h (0 Bft)
14.06.2013 23:36 13,8 C 10,7 C 81 % 1016,0 hPa 0,0 l/m 0 min 0 min 0,0 UV-I 0 W/m 0,0 km/h (0 Bft)
14.06.2013 23:38 13,7 C 10,7 C 81 % 1015,9 hPa 0,0 l/m 0 min 0 min 0,0 UV-I 0 W/m 0,0 km/h (0 Bft)
14.06.2013 23:40 13,7 C 10,7 C 81 % 1015,9 hPa 0,0 l/m 0 min 0 min 0,0 UV-I 0 W/m 0,0 km/h (0 Bft)
14.06.2013 23:42 13,6 C 10,7 C 81 % 1015,9 hPa 0,0 l/m 0 min 0 min 0,0 UV-I 0 W/m 0,0 km/h (0 Bft)
14.06.2013 23:44 13,6 C 10,7 C 82 % 1016,0 hPa 0,0 l/m 0 min 0 min 0,0 UV-I 0 W/m 0,0 km/h (0 Bft)
14.06.2013 23:46 13,5 C 10,7 C 82 % 1016,0 hPa 0,0 l/m 0 min 0 min 0,0 UV-I 0 W/m 0,0 km/h (0 Bft)
14.06.2013 23:48 13,4 C 10,7 C 82 % 1015,9 hPa 0,0 l/m 0 min 0 min 0,0 UV-I 0 W/m 0,0 km/h (0 Bft)
14.06.2013 23:50 13,4 C 10,7 C 82 % 1015,9 hPa 0,0 l/m 0 min 0 min 0,0 UV-I 0 W/m 0,0 km/h (0 Bft)
14.06.2013 23:52 13,3 C 10,1 C 82 % 1015,9 hPa 0,0 l/m 0 min 0 min 0,0 UV-I 0 W/m 0,0 km/h (0 Bft)
14.06.2013 23:54 13,3 C 10,1 C 82 % 1015,9 hPa 0,0 l/m 0 min 0 min 0,0 UV-I 0 W/m 0,0 km/h (0 Bft)
14.06.2013 23:56 13,3 C 10,1 C 82 % 1015,9 hPa 0,0 l/m 0 min 0 min 0,0 UV-I 0 W/m 0,0 km/h (0 Bft)
14.06.2013 23:58 13,2 C 10,1 C 82 % 1015,9 hPa 0,0 l/m 0 min 0 min 0,0 UV-I 0 W/m 0,0 km/h (0 Bft)
_ Min-Zeit 05:50 04:30 16:58 23:38 - - - - - 01:26
Minimum _ 9,9 C 9,0 C 57 % 1015,9 hPa - - - - - 0,0 km/h (0 Bft)
_ Max-Zeit 17:04 13:04 00:00 10:16 00:00 09:56 00:16 13:54 13:22 08:22
Maximum _ 19,4 C 26,8 C 96 % 1020,9 hPa 0,0 l/m 2 min 2 min 5,4 UV-I 1104 W/m 28,3 km/h
S-SO (4 Bft)
Durchschnitt _ 14,4 C 14,2 C 80 % 1018,6 hPa #0,0 l/m #2:54 h #2 min. 1,9 UV-I 272 W/m 5,5 km/h (1 Bft)
© 2013 W. Hausmann